CMB516 KGRK-EYKA

Flight info

Callsign CMB516
Flight time 10h 16m
Altitude 29000
Route LAMPS8 ACT DCT RZC DCT PIA/N0465F310 DCT GOPAK DCT YVO DCT OMTOL DCT YWK/N0459F330 DCT TIGIP DCT 57N055W/M079F330 59N050W 61N040W 62N030W/M079F350 DCT ALDAN DCT 63N010W DCT ISVIG/N0454F350 DCT LEPTI DCT ROVPA DCT EVONA DCT LITPA DCT PELUT
Aircraft B763/H-SDE3FGHIM3RWXY/LB1

Departure

Time 2026-05-07 08:11
Airport Killeen Regional Airport / Robert Gray Army Airfield (KGRK)

Arrival

Time 2026-05-07 18:27
Airport Kaunas International Airport (EYKA)
Time Latitude Longitude Altitude Speed Heading
2026-05-07 08:00 31.06435 -97.83120 994 ft 0 kts 338°
2026-05-07 08:06 31.06438 -97.83122 994 ft 2 kts 338°
2026-05-07 08:06 31.06448 -97.83122 994 ft 1 kts 11°
2026-05-07 08:06 31.06462 -97.83102 995 ft 5 kts 68°
2026-05-07 08:07 31.06446 -97.83041 996 ft 12 kts 139°
2026-05-07 08:07 31.06354 -97.82986 994 ft 16 kts 156°
2026-05-07 08:07 31.06222 -97.82922 993 ft 24 kts 157°
2026-05-07 08:07 31.06175 -97.82900 993 ft 26 kts 157°
2026-05-07 08:08 31.05995 -97.82810 986 ft 29 kts 157°
2026-05-07 08:08 31.05818 -97.82725 980 ft 26 kts 157°
2026-05-07 08:08 31.05649 -97.82645 972 ft 26 kts 157°
2026-05-07 08:08 31.05481 -97.82562 966 ft 24 kts 158°
2026-05-07 08:09 31.05408 -97.82447 966 ft 16 kts 78°
2026-05-07 08:09 31.05446 -97.82333 970 ft 14 kts 65°
2026-05-07 08:09 31.05520 -97.82310 973 ft 13 kts 340°
2026-05-07 08:09 31.05740 -97.82413 982 ft 62 kts 337°
2026-05-07 08:10 31.06318 -97.82692 1012 ft 113 kts 338°
2026-05-07 08:10 31.07200 -97.83118 1017 ft 160 kts 338°
2026-05-07 08:10 31.08346 -97.83682 1146 ft 192 kts 338°
2026-05-07 08:10 31.09582 -97.84383 1572 ft 211 kts 324°
2026-05-07 08:11 31.10632 -97.85735 1982 ft 236 kts 315°
2026-05-07 08:11 31.12017 -97.86832 2512 ft 249 kts 348°
2026-05-07 08:11 31.13678 -97.86850 3510 ft 239 kts 19°
2026-05-07 08:11 31.15135 -97.85889 3947 ft 251 kts 44°
2026-05-07 08:12 31.16446 -97.84489 4414 ft 261 kts 37°
2026-05-07 08:12 31.17915 -97.83212 5023 ft 266 kts 34°
2026-05-07 08:12 31.19472 -97.81982 5587 ft 273 kts 32°
2026-05-07 08:12 31.21085 -97.80788 6185 ft 277 kts 30°
2026-05-07 08:13 31.22729 -97.79613 6729 ft 283 kts 29°
2026-05-07 08:13 31.24440 -97.78413 7326 ft 287 kts 28°
2026-05-07 08:13 31.26169 -97.77216 7884 ft 292 kts 27°
2026-05-07 08:13 31.27921 -97.76007 8433 ft 297 kts 26°
2026-05-07 08:14 31.29725 -97.74767 9012 ft 300 kts 26°
2026-05-07 08:14 31.31519 -97.73536 9536 ft 305 kts 25°
2026-05-07 08:14 31.33374 -97.72263 10060 ft 310 kts 25°
2026-05-07 08:14 31.35243 -97.70984 10404 ft 322 kts 25°
2026-05-07 08:15 31.37266 -97.69602 10432 ft 347 kts 25°
2026-05-07 08:15 31.39414 -97.68128 10553 ft 368 kts 25°
2026-05-07 08:15 31.41634 -97.66599 11170 ft 372 kts 25°
2026-05-07 08:15 31.43868 -97.65061 11684 ft 380 kts 25°
2026-05-07 08:16 31.46177 -97.63470 12352 ft 382 kts 25°
2026-05-07 08:16 31.48476 -97.61890 12879 ft 388 kts 24°
2026-05-07 08:16 31.50805 -97.60284 13460 ft 393 kts 25°
2026-05-07 08:16 31.53186 -97.58644 14039 ft 396 kts 24°
2026-05-07 08:17 31.55551 -97.57014 14585 ft 401 kts 24°
2026-05-07 08:17 31.57994 -97.55329 15099 ft 406 kts 25°
2026-05-07 08:17 31.60433 -97.53646 15623 ft 410 kts 25°
2026-05-07 08:17 31.62904 -97.51939 16114 ft 415 kts 24°
2026-05-07 08:18 31.65400 -97.50214 16612 ft 420 kts 24°
2026-05-07 08:18 31.67924 -97.48467 17106 ft 425 kts 25°
2026-05-07 08:18 31.70475 -97.46704 17562 ft 430 kts 25°
2026-05-07 08:18 31.73043 -97.44923 18116 ft 434 kts 25°
2026-05-07 08:19 31.75702 -97.43084 18613 ft 445 kts 25°
2026-05-07 08:19 31.78395 -97.41216 19108 ft 451 kts 25°
2026-05-07 08:19 31.81092 -97.39340 19821 ft 448 kts 24°
2026-05-07 08:19 31.83790 -97.37467 20325 ft 451 kts 24°
2026-05-07 08:20 31.86511 -97.35577 20792 ft 454 kts 24°
2026-05-07 08:20 31.89193 -97.33707 21625 ft 444 kts 24°
2026-05-07 08:20 31.91865 -97.31849 22063 ft 447 kts 23°
2026-05-07 08:20 31.94570 -97.29969 22397 ft 451 kts 23°
2026-05-07 08:21 31.97252 -97.28098 22877 ft 451 kts 23°
2026-05-07 08:21 31.99954 -97.26217 23182 ft 456 kts 23°
2026-05-07 08:21 32.02711 -97.24294 23524 ft 459 kts 23°
2026-05-07 08:21 32.05481 -97.22361 23847 ft 463 kts 23°
2026-05-07 08:22 32.08226 -97.20441 24277 ft 464 kts 23°
2026-05-07 08:22 32.11017 -97.18492 24546 ft 469 kts 23°
2026-05-07 08:22 32.13871 -97.16496 24828 ft 474 kts 23°
2026-05-07 08:22 32.16685 -97.14523 25227 ft 475 kts 23°
2026-05-07 08:23 32.19550 -97.12517 25460 ft 481 kts 23°
2026-05-07 08:23 32.22432 -97.10495 25811 ft 484 kts 23°
2026-05-07 08:23 32.25336 -97.08456 26145 ft 486 kts 23°
2026-05-07 08:23 32.28257 -97.06406 26406 ft 491 kts 23°
2026-05-07 08:24 32.31205 -97.04333 26748 ft 493 kts 23°
2026-05-07 08:24 32.34172 -97.02248 26936 ft 499 kts 23°
2026-05-07 08:24 32.37170 -97.00135 27302 ft 500 kts 22°
2026-05-07 08:24 32.40088 -96.98079 27609 ft 503 kts 23°
2026-05-07 08:25 32.43149 -96.95921 27904 ft 506 kts 22°
2026-05-07 08:25 32.46171 -96.93787 28220 ft 508 kts 23°
2026-05-07 08:25 32.49265 -96.91606 28416 ft 513 kts 23°
2026-05-07 08:25 32.52317 -96.89448 28722 ft 516 kts 23°
2026-05-07 08:26 32.58522 -96.85059 29084 ft 527 kts 22°
2026-05-07 08:26 32.64902 -96.80542 29089 ft 542 kts 23°
2026-05-07 08:27 32.71270 -96.76006 29072 ft 520 kts 22°
2026-05-07 08:27 32.77378 -96.71663 29088 ft 509 kts 22°
2026-05-07 08:28 32.83540 -96.67283 29104 ft 523 kts 22°
2026-05-07 08:28 32.89809 -96.62807 29100 ft 525 kts 23°
2026-05-07 08:29 32.96019 -96.58365 29093 ft 519 kts 22°
2026-05-07 08:29 33.02216 -96.53932 29103 ft 522 kts 22°
2026-05-07 08:30 33.08460 -96.49454 29100 ft 523 kts 22°
2026-05-07 08:30 33.14671 -96.44991 29100 ft 520 kts 22°
2026-05-07 08:31 33.20875 -96.40530 29095 ft 521 kts 22°
2026-05-07 08:31 33.27090 -96.36051 29082 ft 523 kts 22°
2026-05-07 08:32 33.33306 -96.31564 29066 ft 521 kts 22°
2026-05-07 08:32 33.39518 -96.27071 29071 ft 521 kts 22°
2026-05-07 08:33 33.45694 -96.22598 29083 ft 523 kts 22°
2026-05-07 08:33 33.51919 -96.18083 29076 ft 524 kts 22°
2026-05-07 08:34 33.58130 -96.13566 29079 ft 520 kts 22°
2026-05-07 08:34 33.64332 -96.09052 29076 ft 520 kts 22°
2026-05-07 08:35 33.70530 -96.04534 29087 ft 524 kts 22°
2026-05-07 08:35 33.76739 -95.99995 29077 ft 519 kts 22°
2026-05-07 08:36 33.82887 -95.95499 29097 ft 521 kts 22°
2026-05-07 08:36 33.89079 -95.90961 29082 ft 522 kts 22°
2026-05-07 08:37 33.95276 -95.86410 29098 ft 524 kts 21°
2026-05-07 08:37 34.01480 -95.81846 29087 ft 523 kts 22°
2026-05-07 08:38 34.07700 -95.77262 29088 ft 521 kts 22°
2026-05-07 08:38 34.13868 -95.72710 29085 ft 523 kts 21°
2026-05-07 08:39 34.20071 -95.68124 29086 ft 521 kts 21°
2026-05-07 08:39 34.26261 -95.63539 29093 ft 523 kts 21°
2026-05-07 08:40 34.32430 -95.58961 29084 ft 521 kts 21°
2026-05-07 08:40 34.38619 -95.54362 29090 ft 522 kts 21°
2026-05-07 08:41 34.44823 -95.49745 29099 ft 527 kts 21°
2026-05-07 08:41 34.51083 -95.45074 29095 ft 526 kts 21°
2026-05-07 08:42 34.57267 -95.40452 29095 ft 524 kts 21°
2026-05-07 08:42 34.63485 -95.35799 29111 ft 527 kts 21°
2026-05-07 08:43 34.69750 -95.31102 29081 ft 527 kts 22°
2026-05-07 08:43 34.75929 -95.26457 29085 ft 525 kts 22°
2026-05-07 08:44 34.82172 -95.21762 29090 ft 529 kts 22°
2026-05-07 08:44 34.88417 -95.17051 29083 ft 527 kts 21°
2026-05-07 08:45 34.94646 -95.12346 29092 ft 527 kts 21°
2026-05-07 08:45 35.00856 -95.07647 29093 ft 526 kts 21°
2026-05-07 08:46 35.07059 -95.02947 29102 ft 528 kts 22°
2026-05-07 08:46 35.13316 -94.98195 29092 ft 530 kts 21°
2026-05-07 08:47 35.19594 -94.93415 29106 ft 528 kts 21°
2026-05-07 08:47 35.25850 -94.88650 29115 ft 530 kts 21°
2026-05-07 08:48 35.32060 -94.83906 29109 ft 529 kts 21°
2026-05-07 08:48 35.38308 -94.79125 29118 ft 527 kts 21°
2026-05-07 08:49 35.44540 -94.74350 29127 ft 528 kts 21°
2026-05-07 08:49 35.50727 -94.69599 29117 ft 527 kts 21°
2026-05-07 08:50 35.56907 -94.64845 29120 ft 526 kts 21°
2026-05-07 08:50 35.63141 -94.60044 29115 ft 531 kts 21°
2026-05-07 08:51 35.69383 -94.55222 29106 ft 530 kts 21°
2026-05-07 08:51 35.75617 -94.50397 29110 ft 528 kts 21°
2026-05-07 08:52 35.81814 -94.45596 29120 ft 530 kts 21°
2026-05-07 08:52 35.88089 -94.40724 29118 ft 531 kts 21°
2026-05-07 08:53 35.94329 -94.35867 29130 ft 530 kts 21°
2026-05-07 08:53 36.00518 -94.31043 29114 ft 528 kts 21°
2026-05-07 08:54 36.06757 -94.26175 29115 ft 531 kts 22°
2026-05-07 08:54 36.13002 -94.21285 29107 ft 530 kts 21°
2026-05-07 08:55 36.19207 -94.16420 29120 ft 527 kts 22°
2026-05-07 08:55 36.25357 -94.11504 29115 ft 532 kts 26°
2026-05-07 08:56 36.31369 -94.06072 29130 ft 538 kts 26°
2026-05-07 08:56 36.37423 -94.00588 29122 ft 538 kts 27°
2026-05-07 08:57 36.43422 -93.95139 29130 ft 535 kts 26°
2026-05-07 08:57 36.49403 -93.89701 29131 ft 535 kts 26°
2026-05-07 08:58 36.55429 -93.84210 29120 ft 535 kts 26°
2026-05-07 08:58 36.61417 -93.78745 29112 ft 535 kts 27°
2026-05-07 08:59 36.67421 -93.73251 29119 ft 538 kts 27°
2026-05-07 08:59 36.73430 -93.67740 29118 ft 536 kts 26°
2026-05-07 09:00 36.79428 -93.62229 29122 ft 534 kts 26°
2026-05-07 09:00 36.85354 -93.56776 29130 ft 535 kts 26°
2026-05-07 09:01 36.91344 -93.51251 29143 ft 535 kts 26°
2026-05-07 09:01 36.97312 -93.45737 29129 ft 534 kts 26°
2026-05-07 09:02 37.03287 -93.40205 29122 ft 537 kts 27°
2026-05-07 09:02 37.09266 -93.34656 29125 ft 534 kts 27°
2026-05-07 09:03 37.15189 -93.29146 29077 ft 528 kts 26°
2026-05-07 09:03 37.21116 -93.23632 29091 ft 536 kts 27°
2026-05-07 09:04 37.27111 -93.18032 29092 ft 533 kts 27°
2026-05-07 09:04 37.32982 -93.12537 29114 ft 523 kts 26°
2026-05-07 09:05 37.38808 -93.07085 29102 ft 528 kts 27°
2026-05-07 09:05 37.44708 -93.01542 29103 ft 530 kts 27°
2026-05-07 09:06 37.50577 -92.96016 29137 ft 523 kts 27°
2026-05-07 09:06 37.56407 -92.90521 29096 ft 524 kts 27°
2026-05-07 09:07 37.62228 -92.85026 29100 ft 525 kts 27°
2026-05-07 09:07 37.68035 -92.79526 29114 ft 521 kts 27°
2026-05-07 09:08 37.73811 -92.74046 29122 ft 519 kts 27°
2026-05-07 09:08 37.79564 -92.68582 29109 ft 522 kts 27°
2026-05-07 09:09 37.85352 -92.63067 29105 ft 517 kts 27°
2026-05-07 09:09 37.91068 -92.57614 29102 ft 516 kts 27°
2026-05-07 09:10 37.96835 -92.52103 29111 ft 520 kts 28°
2026-05-07 09:10 38.02556 -92.46618 29104 ft 513 kts 28°
2026-05-07 09:11 38.08232 -92.41171 29110 ft 514 kts 27°
2026-05-07 09:11 38.13930 -92.35689 29119 ft 511 kts 28°
2026-05-07 09:12 38.19622 -92.30205 29100 ft 512 kts 28°
2026-05-07 09:12 38.25301 -92.24719 29076 ft 513 kts 29°
2026-05-07 09:13 38.30907 -92.19291 29068 ft 503 kts 29°
2026-05-07 09:13 38.36494 -92.13880 29107 ft 510 kts 29°
2026-05-07 09:14 38.42140 -92.08396 29078 ft 512 kts 29°
2026-05-07 09:14 38.47799 -92.02882 29079 ft 508 kts 29°
2026-05-07 09:15 38.53376 -91.97441 29099 ft 505 kts 29°
2026-05-07 09:15 38.58960 -91.91985 29090 ft 505 kts 29°
2026-05-07 09:16 38.64485 -91.86575 29085 ft 503 kts 30°
2026-05-07 09:16 38.70047 -91.81118 29096 ft 505 kts 29°
2026-05-07 09:17 38.75640 -91.75616 29099 ft 505 kts 30°
2026-05-07 09:17 38.81152 -91.70186 29092 ft 503 kts 29°
2026-05-07 09:18 38.86712 -91.64698 29094 ft 506 kts 30°
2026-05-07 09:18 38.92286 -91.59180 29067 ft 503 kts 29°
2026-05-07 09:19 38.97796 -91.53721 29068 ft 505 kts 29°
2026-05-07 09:19 39.03368 -91.48186 29115 ft 508 kts 30°
2026-05-07 09:20 39.08894 -91.42683 29070 ft 501 kts 30°
2026-05-07 09:20 39.14411 -91.37183 29078 ft 500 kts 30°
2026-05-07 09:21 39.19896 -91.31703 29067 ft 504 kts 31°
2026-05-07 09:21 39.25442 -91.26145 29059 ft 503 kts 30°
2026-05-07 09:22 39.30907 -91.20660 29066 ft 498 kts 30°
2026-05-07 09:22 39.36376 -91.15163 29061 ft 498 kts 30°
2026-05-07 09:23 39.41819 -91.09680 29084 ft 497 kts 30°
2026-05-07 09:23 39.47245 -91.04200 29084 ft 496 kts 30°
2026-05-07 09:24 39.52681 -90.98700 29057 ft 495 kts 30°
2026-05-07 09:24 39.58074 -90.93233 29086 ft 492 kts 30°
2026-05-07 09:25 39.63421 -90.87801 29073 ft 489 kts 30°
2026-05-07 09:25 39.68796 -90.82332 29092 ft 492 kts 30°
2026-05-07 09:26 39.74147 -90.76872 29073 ft 489 kts 30°
2026-05-07 09:26 39.79448 -90.71456 29076 ft 487 kts 31°
2026-05-07 09:27 39.84792 -90.65983 29084 ft 487 kts 31°
2026-05-07 09:28 39.92706 -90.57858 29064 ft 484 kts 31°
2026-05-07 09:28 39.98004 -90.52405 29070 ft 486 kts 31°
2026-05-07 09:29 40.03289 -90.46954 29066 ft 484 kts 31°
2026-05-07 09:29 40.08535 -90.41532 29072 ft 486 kts 31°
2026-05-07 09:30 40.13851 -90.36027 29058 ft 486 kts 31°
2026-05-07 09:30 40.19159 -90.30521 29043 ft 489 kts 31°
2026-05-07 09:31 40.24464 -90.25004 29044 ft 490 kts 32°
2026-05-07 09:31 40.29799 -90.19443 29042 ft 489 kts 31°
2026-05-07 09:32 40.35088 -90.13923 29052 ft 490 kts 32°
2026-05-07 09:32 40.40448 -90.08314 29049 ft 492 kts 32°
2026-05-07 09:33 40.45773 -90.02729 29056 ft 491 kts 32°
2026-05-07 09:33 40.51073 -89.97160 29057 ft 488 kts 31°
2026-05-07 09:34 40.56379 -89.91577 29069 ft 491 kts 31°
2026-05-07 09:34 40.61706 -89.85953 29060 ft 492 kts 32°
2026-05-07 09:35 40.67046 -89.80292 29066 ft 492 kts 34°
2026-05-07 09:35 40.72071 -89.74184 29078 ft 498 kts 36°
2026-05-07 09:36 40.77103 -89.67926 29067 ft 496 kts 37°
2026-05-07 09:36 40.82100 -89.61676 29070 ft 495 kts 37°
2026-05-07 09:37 40.87078 -89.55431 29076 ft 497 kts 37°
2026-05-07 09:37 40.92069 -89.49151 29063 ft 496 kts 37°
2026-05-07 09:38 40.97066 -89.42853 29068 ft 497 kts 37°
2026-05-07 09:38 41.02058 -89.36546 29078 ft 497 kts 37°
2026-05-07 09:39 41.07051 -89.30223 29050 ft 496 kts 38°
2026-05-07 09:39 41.12037 -89.23898 29046 ft 497 kts 38°
2026-05-07 09:40 41.17014 -89.17568 29051 ft 497 kts 38°
2026-05-07 09:40 41.21981 -89.11237 29065 ft 497 kts 38°
2026-05-07 09:41 41.26937 -89.04906 29053 ft 497 kts 38°
2026-05-07 09:41 41.31925 -88.98521 29060 ft 497 kts 38°
2026-05-07 09:42 41.36899 -88.92139 29058 ft 498 kts 38°
2026-05-07 09:42 41.41841 -88.85783 29053 ft 496 kts 38°
2026-05-07 09:43 41.46821 -88.79365 29063 ft 497 kts 38°
2026-05-07 09:43 41.51767 -88.72975 29044 ft 497 kts 38°
2026-05-07 09:44 41.56690 -88.66599 29058 ft 497 kts 38°
2026-05-07 09:44 41.61650 -88.60165 29054 ft 498 kts 38°
2026-05-07 09:45 41.66620 -88.53700 29047 ft 498 kts 38°
2026-05-07 09:45 41.71556 -88.47267 29053 ft 497 kts 38°
2026-05-07 09:46 41.76506 -88.40801 29049 ft 498 kts 38°
2026-05-07 09:46 41.81446 -88.34331 29052 ft 497 kts 39°
2026-05-07 09:47 41.86394 -88.27837 29038 ft 496 kts 39°
2026-05-07 09:47 41.91314 -88.21367 29032 ft 499 kts 39°
2026-05-07 09:48 41.96232 -88.14882 29021 ft 497 kts 38°
2026-05-07 09:48 42.01174 -88.08352 29055 ft 499 kts 39°
2026-05-07 09:49 42.06085 -88.01847 29049 ft 498 kts 39°
2026-05-07 09:49 42.10991 -87.95332 29044 ft 494 kts 39°
2026-05-07 09:50 42.15870 -87.88843 29041 ft 494 kts 39°
2026-05-07 09:50 42.20754 -87.82329 29040 ft 493 kts 39°
2026-05-07 09:51 42.25635 -87.75804 29034 ft 495 kts 39°
2026-05-07 09:51 42.30505 -87.69279 29033 ft 493 kts 39°
2026-05-07 09:52 42.35350 -87.62775 29040 ft 494 kts 39°
2026-05-07 09:52 42.40219 -87.56220 29026 ft 494 kts 39°
2026-05-07 09:53 42.45063 -87.49684 29026 ft 491 kts 39°
2026-05-07 09:53 42.49872 -87.43182 29021 ft 490 kts 39°
2026-05-07 09:54 42.54696 -87.36644 29017 ft 490 kts 39°
2026-05-07 09:54 42.59468 -87.30161 28988 ft 488 kts 40°
2026-05-07 09:55 42.64273 -87.23621 28992 ft 490 kts 40°
2026-05-07 09:55 42.69067 -87.17077 29000 ft 490 kts 40°
2026-05-07 09:56 42.73835 -87.10553 29001 ft 487 kts 40°
2026-05-07 09:56 42.78600 -87.04020 28986 ft 488 kts 40°
2026-05-07 09:57 42.83363 -86.97475 29003 ft 484 kts 40°
2026-05-07 09:57 42.88093 -86.90959 28992 ft 485 kts 40°
2026-05-07 09:58 42.92842 -86.84403 28990 ft 486 kts 40°
2026-05-07 09:58 42.97549 -86.77888 29002 ft 484 kts 40°
2026-05-07 09:59 43.02255 -86.71362 28994 ft 483 kts 40°
2026-05-07 09:59 43.06962 -86.64816 28988 ft 483 kts 40°
2026-05-07 10:00 43.11667 -86.58260 28987 ft 483 kts 40°
2026-05-07 10:00 43.16359 -86.51706 28991 ft 482 kts 40°
2026-05-07 10:01 43.21022 -86.45176 28994 ft 482 kts 40°
2026-05-07 10:01 43.25691 -86.38625 28985 ft 481 kts 40°
2026-05-07 10:02 43.30346 -86.32077 28986 ft 480 kts 41°
2026-05-07 10:02 43.34969 -86.25560 28975 ft 479 kts 41°
2026-05-07 10:03 43.39631 -86.18971 28968 ft 479 kts 41°
2026-05-07 10:03 43.44243 -86.12439 28976 ft 479 kts 41°
2026-05-07 10:04 43.48868 -86.05872 28975 ft 480 kts 41°
2026-05-07 10:04 43.53491 -85.99292 28971 ft 477 kts 41°
2026-05-07 10:05 43.58083 -85.92742 28967 ft 476 kts 41°
2026-05-07 10:05 43.62694 -85.86149 28965 ft 477 kts 41°
2026-05-07 10:06 43.67281 -85.79575 28965 ft 478 kts 41°
2026-05-07 10:06 43.71890 -85.72954 28960 ft 476 kts 41°
2026-05-07 10:07 43.76463 -85.66368 28966 ft 477 kts 41°
2026-05-07 10:07 43.81031 -85.59776 28956 ft 476 kts 41°
2026-05-07 10:08 43.85590 -85.53179 28951 ft 474 kts 41°
2026-05-07 10:08 43.90125 -85.46603 28940 ft 473 kts 41°
2026-05-07 10:09 43.94657 -85.40015 28941 ft 474 kts 41°
2026-05-07 10:09 43.99187 -85.33415 28923 ft 472 kts 41°
2026-05-07 10:10 44.03724 -85.26791 28928 ft 474 kts 42°
2026-05-07 10:10 44.08244 -85.20172 28923 ft 474 kts 42°
2026-05-07 10:11 44.12758 -85.13547 28923 ft 473 kts 42°
2026-05-07 10:11 44.17269 -85.06911 28937 ft 473 kts 42°
2026-05-07 10:12 44.21788 -85.00247 28943 ft 472 kts 42°
2026-05-07 10:12 44.26270 -84.93623 28938 ft 470 kts 41°
2026-05-07 10:13 44.30749 -84.86988 28941 ft 470 kts 42°
2026-05-07 10:13 44.35219 -84.80351 28953 ft 472 kts 42°
2026-05-07 10:14 44.39685 -84.73702 28946 ft 469 kts 42°
2026-05-07 10:14 44.44152 -84.67037 28942 ft 470 kts 42°
2026-05-07 10:15 44.48615 -84.60362 28940 ft 470 kts 42°
2026-05-07 10:15 44.53052 -84.53709 28926 ft 469 kts 42°
2026-05-07 10:16 44.57480 -84.47053 28924 ft 468 kts 42°
2026-05-07 10:16 44.61886 -84.40416 28920 ft 466 kts 42°
2026-05-07 10:17 44.66312 -84.33733 28917 ft 467 kts 43°
2026-05-07 10:17 44.70713 -84.27071 28908 ft 466 kts 43°
2026-05-07 10:18 44.75107 -84.20403 28923 ft 467 kts 43°
2026-05-07 10:18 44.79503 -84.13716 28922 ft 466 kts 43°
2026-05-07 10:19 44.83894 -84.07021 28936 ft 467 kts 43°
2026-05-07 10:19 44.88274 -84.00326 28939 ft 466 kts 43°
2026-05-07 10:20 44.92641 -83.93635 28940 ft 465 kts 43°
2026-05-07 10:20 44.97024 -83.86905 28951 ft 466 kts 43°
2026-05-07 10:21 45.01393 -83.80178 28952 ft 465 kts 43°
2026-05-07 10:21 45.05747 -83.73458 28948 ft 463 kts 43°
2026-05-07 10:22 45.10097 -83.66728 28952 ft 464 kts 43°
2026-05-07 10:22 45.14423 -83.60020 28962 ft 464 kts 43°
2026-05-07 10:23 45.18751 -83.53290 28954 ft 462 kts 43°
2026-05-07 10:23 45.23082 -83.46542 28952 ft 461 kts 43°
2026-05-07 10:24 45.27384 -83.39822 28946 ft 462 kts 43°
2026-05-07 10:24 45.31672 -83.33107 28951 ft 461 kts 44°
2026-05-07 10:25 45.35972 -83.26357 28947 ft 461 kts 44°
2026-05-07 10:25 45.40264 -83.19602 28946 ft 461 kts 44°
2026-05-07 10:26 45.44545 -83.12849 28946 ft 462 kts 44°
2026-05-07 10:26 45.48821 -83.06088 28943 ft 460 kts 44°
2026-05-07 10:27 45.53084 -82.99329 28934 ft 459 kts 44°
2026-05-07 10:27 45.57349 -82.92553 28938 ft 459 kts 44°
2026-05-07 10:28 45.61586 -82.85802 28936 ft 459 kts 44°
2026-05-07 10:28 45.65837 -82.79014 28941 ft 458 kts 44°
2026-05-07 10:29 45.70058 -82.72255 28945 ft 458 kts 44°
2026-05-07 10:29 45.74279 -82.65483 28942 ft 458 kts 44°
2026-05-07 10:30 45.80629 -82.55260 28938 ft 457 kts 44°
2026-05-07 10:30 45.84728 -82.48367 28935 ft 459 kts 48°
2026-05-07 10:31 45.88653 -82.41157 28932 ft 460 kts 48°
2026-05-07 10:31 45.92550 -82.33953 28926 ft 458 kts 49°
2026-05-07 10:32 45.96452 -82.26713 28934 ft 458 kts 49°
2026-05-07 10:32 46.00337 -82.19484 28937 ft 460 kts 49°
2026-05-07 10:33 46.04230 -82.12220 28924 ft 459 kts 49°
2026-05-07 10:33 46.08102 -82.04975 28930 ft 456 kts 49°
2026-05-07 10:34 46.11969 -81.97724 28930 ft 457 kts 49°
2026-05-07 10:34 46.15818 -81.90485 28929 ft 457 kts 49°
2026-05-07 10:35 46.19660 -81.83243 28920 ft 454 kts 49°
2026-05-07 10:35 46.23476 -81.76029 28917 ft 455 kts 49°
2026-05-07 10:36 46.27300 -81.68784 28916 ft 456 kts 49°
2026-05-07 10:36 46.31128 -81.61513 28913 ft 456 kts 50°
2026-05-07 10:37 46.34935 -81.54259 28903 ft 453 kts 49°
2026-05-07 10:37 46.38734 -81.47005 28899 ft 455 kts 49°
2026-05-07 10:38 46.42548 -81.39699 28889 ft 453 kts 49°
2026-05-07 10:38 46.46333 -81.32433 28897 ft 454 kts 50°
2026-05-07 10:39 46.50110 -81.25163 28897 ft 453 kts 50°
2026-05-07 10:39 46.53881 -81.17885 28875 ft 451 kts 50°
2026-05-07 10:40 46.57653 -81.10589 28890 ft 454 kts 50°
2026-05-07 10:40 46.61406 -81.03306 28874 ft 450 kts 50°
2026-05-07 10:41 46.65142 -80.96038 28869 ft 451 kts 50°
2026-05-07 10:41 46.68899 -80.88711 28881 ft 453 kts 50°
2026-05-07 10:42 46.72634 -80.81409 28887 ft 450 kts 50°
2026-05-07 10:42 46.76351 -80.74121 28887 ft 448 kts 50°
2026-05-07 10:43 46.80070 -80.66812 28877 ft 449 kts 51°
2026-05-07 10:43 46.83775 -80.59511 28880 ft 451 kts 51°
2026-05-07 10:44 46.87476 -80.52196 28860 ft 448 kts 51°
2026-05-07 10:44 46.91186 -80.44848 28868 ft 450 kts 51°
2026-05-07 10:45 46.94868 -80.37531 28851 ft 447 kts 51°
2026-05-07 10:45 46.98555 -80.30189 28847 ft 448 kts 52°
2026-05-07 10:46 47.02210 -80.22890 28831 ft 448 kts 52°
2026-05-07 10:46 47.05885 -80.15532 28844 ft 450 kts 52°
2026-05-07 10:47 47.09565 -80.08142 28832 ft 448 kts 52°
2026-05-07 10:47 47.13213 -80.00798 28852 ft 447 kts 52°
2026-05-07 10:48 47.16864 -79.93429 28851 ft 446 kts 52°
2026-05-07 10:48 47.20504 -79.86063 28854 ft 447 kts 52°
2026-05-07 10:49 47.24133 -79.78700 28829 ft 445 kts 52°
2026-05-07 10:49 47.27748 -79.71345 28826 ft 445 kts 52°
2026-05-07 10:50 47.31381 -79.63934 28852 ft 448 kts 52°
2026-05-07 10:50 47.35005 -79.56519 28858 ft 448 kts 52°
2026-05-07 10:51 47.38615 -79.49115 28853 ft 444 kts 52°
2026-05-07 10:51 47.42221 -79.41698 28863 ft 446 kts 52°
2026-05-07 10:52 47.45825 -79.34266 28828 ft 446 kts 53°
2026-05-07 10:52 47.49407 -79.26859 28842 ft 445 kts 53°
2026-05-07 10:53 47.52999 -79.19411 28841 ft 445 kts 53°
2026-05-07 10:53 47.56577 -79.11974 28831 ft 445 kts 53°
2026-05-07 10:54 47.60127 -79.04572 28834 ft 443 kts 53°
2026-05-07 10:54 47.63686 -78.97134 28823 ft 443 kts 53°
2026-05-07 10:55 47.67247 -78.89671 28821 ft 446 kts 53°
2026-05-07 10:55 47.70827 -78.82147 28817 ft 446 kts 53°
2026-05-07 10:56 47.74373 -78.74673 28802 ft 444 kts 53°
2026-05-07 10:56 47.77917 -78.67185 28833 ft 446 kts 53°
2026-05-07 10:57 47.81457 -78.59681 28836 ft 444 kts 53°
2026-05-07 10:57 47.84989 -78.52177 28835 ft 443 kts 53°
2026-05-07 10:58 47.88518 -78.44658 28815 ft 443 kts 53°
2026-05-07 10:58 47.92020 -78.37177 28834 ft 443 kts 53°
2026-05-07 10:59 47.95536 -78.29644 28823 ft 444 kts 54°
2026-05-07 10:59 47.99038 -78.22122 28828 ft 446 kts 54°
2026-05-07 11:00 48.02562 -78.14529 28808 ft 444 kts 54°
2026-05-07 11:00 48.06072 -78.06945 28817 ft 444 kts 55°
2026-05-07 11:01 48.09559 -77.99391 28822 ft 444 kts 55°
2026-05-07 11:01 48.13038 -77.91834 28829 ft 443 kts 55°
2026-05-07 11:02 48.16542 -77.84199 28822 ft 445 kts 55°
2026-05-07 11:02 48.20300 -77.76899 28807 ft 443 kts 50°
2026-05-07 11:03 48.24184 -77.69742 28816 ft 445 kts 50°
2026-05-07 11:03 48.28064 -77.62553 28810 ft 445 kts 50°
2026-05-07 11:04 48.31942 -77.55344 28795 ft 443 kts 50°
2026-05-07 11:04 48.35801 -77.48148 28794 ft 445 kts 50°
2026-05-07 11:05 48.39656 -77.40939 28804 ft 446 kts 50°
2026-05-07 11:05 48.43527 -77.33683 28797 ft 445 kts 51°
2026-05-07 11:06 48.47395 -77.26411 28804 ft 446 kts 51°
2026-05-07 11:06 48.51252 -77.19139 28801 ft 446 kts 51°
2026-05-07 11:07 48.55096 -77.11875 28796 ft 444 kts 51°
2026-05-07 11:07 48.58938 -77.04592 28794 ft 443 kts 51°
2026-05-07 11:08 48.62766 -76.97317 28796 ft 443 kts 51°
2026-05-07 11:08 48.66585 -76.90041 28799 ft 446 kts 51°
2026-05-07 11:09 48.70415 -76.82723 28784 ft 446 kts 52°
2026-05-07 11:09 48.74242 -76.75391 28788 ft 445 kts 52°
2026-05-07 11:10 48.78083 -76.68009 28782 ft 446 kts 52°
2026-05-07 11:10 48.81886 -76.60683 28775 ft 444 kts 52°
2026-05-07 11:11 48.85706 -76.53303 28778 ft 446 kts 52°
2026-05-07 11:11 48.89533 -76.45890 28771 ft 445 kts 52°
2026-05-07 11:12 48.93323 -76.38527 28778 ft 445 kts 52°
2026-05-07 11:12 48.97143 -76.31087 28787 ft 447 kts 53°
2026-05-07 11:13 49.00940 -76.23670 28789 ft 446 kts 53°
2026-05-07 11:13 49.04746 -76.16213 28804 ft 446 kts 53°
2026-05-07 11:14 49.08527 -76.08787 28801 ft 447 kts 53°
2026-05-07 11:14 49.12322 -76.01311 28784 ft 446 kts 53°
2026-05-07 11:15 49.16100 -75.93847 28794 ft 447 kts 53°
2026-05-07 11:15 49.19892 -75.86337 28788 ft 448 kts 53°
2026-05-07 11:16 49.23691 -75.78790 28793 ft 448 kts 53°
2026-05-07 11:16 49.27486 -75.71230 28788 ft 448 kts 53°
2026-05-07 11:17 49.31253 -75.63705 28779 ft 448 kts 53°
2026-05-07 11:17 49.35033 -75.56132 28790 ft 450 kts 53°
2026-05-07 11:18 49.38821 -75.48521 28777 ft 448 kts 53°
2026-05-07 11:18 49.42600 -75.40907 28780 ft 449 kts 53°
2026-05-07 11:19 49.46361 -75.33305 28786 ft 450 kts 54°
2026-05-07 11:19 49.50144 -75.25641 28775 ft 449 kts 54°
2026-05-07 11:20 49.53908 -75.17990 28775 ft 450 kts 54°
2026-05-07 11:20 49.57672 -75.10320 28776 ft 451 kts 54°
2026-05-07 11:21 49.61408 -75.02683 28778 ft 450 kts 54°
2026-05-07 11:21 49.65193 -74.94923 28788 ft 453 kts 54°
2026-05-07 11:22 49.68964 -74.87169 28778 ft 451 kts 54°
2026-05-07 11:22 49.72690 -74.79487 28773 ft 450 kts 54°
2026-05-07 11:23 49.76443 -74.71725 28771 ft 452 kts 54°
2026-05-07 11:23 49.80172 -74.63990 28774 ft 451 kts 54°
2026-05-07 11:24 49.83913 -74.56208 28777 ft 453 kts 54°
2026-05-07 11:24 49.87664 -74.48383 28772 ft 454 kts 54°
2026-05-07 11:25 49.91418 -74.40528 28766 ft 455 kts 54°
2026-05-07 11:25 49.95178 -74.32636 28763 ft 456 kts 56°
2026-05-07 11:26 49.98933 -74.24731 28748 ft 455 kts 56°
2026-05-07 11:26 50.02665 -74.16853 28752 ft 456 kts 56°
2026-05-07 11:27 50.06411 -74.08921 28753 ft 456 kts 56°
2026-05-07 11:27 50.10142 -74.00996 28749 ft 455 kts 56°
2026-05-07 11:28 50.13866 -73.93061 28751 ft 456 kts 56°
2026-05-07 11:28 50.17617 -73.85044 28758 ft 459 kts 56°
2026-05-07 11:29 50.21366 -73.77010 28745 ft 458 kts 56°
2026-05-07 11:29 50.25109 -73.68962 28740 ft 459 kts 56°
2026-05-07 11:30 50.28838 -73.60921 28745 ft 462 kts 56°
2026-05-07 11:30 50.32601 -73.52782 28754 ft 462 kts 56°
2026-05-07 11:31 50.36355 -73.44635 28761 ft 463 kts 56°
2026-05-07 11:31 50.40096 -73.36493 28749 ft 461 kts 56°
2026-05-07 11:32 50.45703 -73.24240 28739 ft 464 kts 57°
2026-05-07 11:33 50.49448 -73.16026 28722 ft 463 kts 57°
2026-05-07 11:33 50.53192 -73.07787 28721 ft 465 kts 57°
2026-05-07 11:34 50.56926 -72.99545 28723 ft 465 kts 57°
2026-05-07 11:34 50.60674 -72.91248 28726 ft 466 kts 57°
2026-05-07 11:35 50.64402 -72.82964 28726 ft 467 kts 57°
2026-05-07 11:35 50.68149 -72.74614 28728 ft 469 kts 57°
2026-05-07 11:36 50.71875 -72.66285 28718 ft 468 kts 57°
2026-05-07 11:36 50.75618 -72.57891 28739 ft 471 kts 57°
2026-05-07 11:37 50.79372 -72.49445 28740 ft 471 kts 57°
2026-05-07 11:37 50.83123 -72.40977 28743 ft 473 kts 57°
2026-05-07 11:38 50.86894 -72.32438 28733 ft 472 kts 58°
2026-05-07 11:38 50.90635 -72.23940 28745 ft 472 kts 58°
2026-05-07 11:39 50.94363 -72.15440 28735 ft 473 kts 58°
2026-05-07 11:39 50.98117 -72.06855 28731 ft 475 kts 58°
2026-05-07 11:40 51.01859 -71.98273 28719 ft 476 kts 59°
2026-05-07 11:40 51.05622 -71.89606 28736 ft 478 kts 58°
2026-05-07 11:41 51.09323 -71.80947 28729 ft 475 kts 60°
2026-05-07 11:41 51.12969 -71.72143 28715 ft 478 kts 60°
2026-05-07 11:42 51.16615 -71.63303 28722 ft 479 kts 60°
2026-05-07 11:42 51.20249 -71.54459 28731 ft 477 kts 60°
2026-05-07 11:43 51.23846 -71.45673 28736 ft 479 kts 60°
2026-05-07 11:43 51.27486 -71.36753 28719 ft 479 kts 60°
2026-05-07 11:44 51.31105 -71.27854 28704 ft 479 kts 62°
2026-05-07 11:44 51.34712 -71.18954 28714 ft 481 kts 62°
2026-05-07 11:45 51.38337 -71.09977 28707 ft 482 kts 62°
2026-05-07 11:45 51.41960 -71.00974 28715 ft 482 kts 62°
2026-05-07 11:46 51.45558 -70.92002 28715 ft 482 kts 62°
2026-05-07 11:46 51.49182 -70.82935 28721 ft 483 kts 62°
2026-05-07 11:47 51.52769 -70.73927 28716 ft 483 kts 62°
2026-05-07 11:47 51.56381 -70.64825 28724 ft 483 kts 62°
2026-05-07 11:48 51.59970 -70.55750 28724 ft 485 kts 62°
2026-05-07 11:48 51.63564 -70.46631 28712 ft 482 kts 62°
2026-05-07 11:49 51.67154 -70.37485 28724 ft 485 kts 62°
2026-05-07 11:49 51.70737 -70.28330 28715 ft 485 kts 63°
2026-05-07 11:50 51.74313 -70.19157 28723 ft 485 kts 63°
2026-05-07 11:50 51.77882 -70.09968 28719 ft 487 kts 63°
2026-05-07 11:51 51.81454 -70.00740 28719 ft 487 kts 64°
2026-05-07 11:51 51.85049 -69.91416 28716 ft 489 kts 63°
2026-05-07 11:52 51.88610 -69.82154 28701 ft 486 kts 64°
2026-05-07 11:52 51.92173 -69.72845 28705 ft 488 kts 64°
2026-05-07 11:53 51.95731 -69.63522 28699 ft 487 kts 64°
2026-05-07 11:53 51.99269 -69.54211 28700 ft 487 kts 64°
2026-05-07 11:54 52.02793 -69.44905 28705 ft 486 kts 64°
2026-05-07 11:54 52.06318 -69.35564 28702 ft 488 kts 64°
2026-05-07 11:55 52.09846 -69.26177 28703 ft 487 kts 64°
2026-05-07 11:55 52.13351 -69.16821 28678 ft 485 kts 64°
2026-05-07 11:56 52.16847 -69.07449 28691 ft 489 kts 64°
2026-05-07 11:56 52.20356 -68.98014 28683 ft 488 kts 64°
2026-05-07 11:57 52.23852 -68.88577 28687 ft 486 kts 64°
2026-05-07 11:57 52.27336 -68.79132 28697 ft 487 kts 65°
2026-05-07 11:58 52.30802 -68.69710 28696 ft 486 kts 65°
2026-05-07 11:58 52.34245 -68.60308 28694 ft 486 kts 65°
2026-05-07 11:59 52.37692 -68.50864 28697 ft 485 kts 65°
2026-05-07 11:59 52.41131 -68.41402 28687 ft 485 kts 65°
2026-05-07 12:00 52.44565 -68.31921 28690 ft 484 kts 66°
2026-05-07 12:00 52.47961 -68.22510 28680 ft 485 kts 66°
2026-05-07 12:01 52.51376 -68.13008 28678 ft 483 kts 66°
2026-05-07 12:01 52.54770 -68.03533 28686 ft 483 kts 67°
2026-05-07 12:02 52.58181 -67.93969 28682 ft 485 kts 67°
2026-05-07 12:02 52.61555 -67.84478 28680 ft 484 kts 66°
2026-05-07 12:03 52.64936 -67.74927 28689 ft 485 kts 67°
2026-05-07 12:03 52.68312 -67.65357 28683 ft 485 kts 67°
2026-05-07 12:04 52.71693 -67.55733 28700 ft 484 kts 67°
2026-05-07 12:04 52.75039 -67.46172 28709 ft 488 kts 66°
2026-05-07 12:05 52.78423 -67.36467 28693 ft 486 kts 67°
2026-05-07 12:05 52.81763 -67.26852 28697 ft 484 kts 68°
2026-05-07 12:06 52.85112 -67.17167 28697 ft 487 kts 67°
2026-05-07 12:06 52.88447 -67.07491 28699 ft 487 kts 67°
2026-05-07 12:07 52.91789 -66.97756 28705 ft 485 kts 67°
2026-05-07 12:07 52.95108 -66.88052 28704 ft 485 kts 67°
2026-05-07 12:08 52.98830 -66.78696 28710 ft 491 kts 60°
2026-05-07 12:08 53.02750 -66.69568 28691 ft 489 kts 61°
2026-05-07 12:09 53.06659 -66.60366 28690 ft 490 kts 61°
2026-05-07 12:09 53.10588 -66.51077 28687 ft 490 kts 60°
2026-05-07 12:10 53.14475 -66.41844 28679 ft 491 kts 60°
2026-05-07 12:10 53.18402 -66.32484 28673 ft 491 kts 62°
2026-05-07 12:11 53.22259 -66.23255 28678 ft 489 kts 62°
2026-05-07 12:11 53.26139 -66.13935 28672 ft 491 kts 62°
2026-05-07 12:12 53.30019 -66.04586 28674 ft 489 kts 62°
2026-05-07 12:12 53.33859 -65.95291 28667 ft 491 kts 61°
2026-05-07 12:13 53.37730 -65.85893 28679 ft 492 kts 62°
2026-05-07 12:13 53.41591 -65.76481 28687 ft 493 kts 62°
2026-05-07 12:14 53.45458 -65.67024 28694 ft 493 kts 62°
2026-05-07 12:14 53.49313 -65.57557 28698 ft 493 kts 62°
2026-05-07 12:15 53.53180 -65.48023 28699 ft 495 kts 62°
2026-05-07 12:15 53.57016 -65.38534 28699 ft 494 kts 61°
2026-05-07 12:16 53.60863 -65.28976 28712 ft 495 kts 62°
2026-05-07 12:16 53.64716 -65.19370 28703 ft 494 kts 62°
2026-05-07 12:17 53.68540 -65.09798 28711 ft 494 kts 62°
2026-05-07 12:17 53.72346 -65.00238 28718 ft 496 kts 63°
2026-05-07 12:18 53.76181 -64.90567 28710 ft 494 kts 62°
2026-05-07 12:18 53.79986 -64.80931 28709 ft 497 kts 62°
2026-05-07 12:19 53.83791 -64.71266 28702 ft 496 kts 62°
2026-05-07 12:19 53.87598 -64.61555 28700 ft 495 kts 62°
2026-05-07 12:20 53.91380 -64.51866 28710 ft 496 kts 62°
2026-05-07 12:20 53.95161 -64.42146 28700 ft 496 kts 62°
2026-05-07 12:21 53.98937 -64.32400 28715 ft 495 kts 63°
2026-05-07 12:21 54.02718 -64.22601 28712 ft 497 kts 63°
2026-05-07 12:22 54.06501 -64.12760 28730 ft 498 kts 63°
2026-05-07 12:22 54.10259 -64.02942 28717 ft 497 kts 63°
2026-05-07 12:23 54.14007 -63.93121 28705 ft 497 kts 63°
2026-05-07 12:23 54.17762 -63.83232 28725 ft 498 kts 63°
2026-05-07 12:24 54.21501 -63.73350 28713 ft 497 kts 63°
2026-05-07 12:24 54.25235 -63.63442 28720 ft 499 kts 63°
2026-05-07 12:25 54.28975 -63.53482 28712 ft 499 kts 63°
2026-05-07 12:25 54.32678 -63.43573 28712 ft 498 kts 63°
2026-05-07 12:26 54.36405 -63.33563 28727 ft 501 kts 63°
2026-05-07 12:26 54.40128 -63.23531 28721 ft 497 kts 63°
2026-05-07 12:27 54.43814 -63.13548 28737 ft 497 kts 64°
2026-05-07 12:27 54.47506 -63.03511 28728 ft 498 kts 63°
2026-05-07 12:28 54.51159 -62.93541 28737 ft 496 kts 63°
2026-05-07 12:28 54.54833 -62.83469 28743 ft 500 kts 63°
2026-05-07 12:29 54.58499 -62.73387 28745 ft 498 kts 63°
2026-05-07 12:29 54.62145 -62.63308 28756 ft 499 kts 63°
2026-05-07 12:30 54.65824 -62.53101 28759 ft 500 kts 63°
2026-05-07 12:30 54.69477 -62.42926 28755 ft 501 kts 63°
2026-05-07 12:31 54.73112 -62.32760 28751 ft 500 kts 63°
2026-05-07 12:31 54.76757 -62.22525 28742 ft 498 kts 64°
2026-05-07 12:32 54.80374 -62.12318 28749 ft 500 kts 64°
2026-05-07 12:32 54.83982 -62.02099 28751 ft 502 kts 64°
2026-05-07 12:33 54.89402 -61.86669 28745 ft 499 kts 64°
2026-05-07 12:33 54.92998 -61.76380 28757 ft 501 kts 63°
2026-05-07 12:34 54.96589 -61.66050 28755 ft 502 kts 63°
2026-05-07 12:34 55.00193 -61.55650 28765 ft 502 kts 63°
2026-05-07 12:35 55.03756 -61.45329 28763 ft 501 kts 63°
2026-05-07 12:35 55.07346 -61.34869 28779 ft 502 kts 64°
2026-05-07 12:36 55.10906 -61.24466 28778 ft 502 kts 64°
2026-05-07 12:36 55.14446 -61.14064 28780 ft 501 kts 64°
2026-05-07 12:37 55.18003 -61.03574 28791 ft 501 kts 64°
2026-05-07 12:37 55.21528 -60.93141 28791 ft 503 kts 64°
2026-05-07 12:38 55.25058 -60.82643 28791 ft 501 kts 64°
2026-05-07 12:38 55.28561 -60.72175 28792 ft 500 kts 63°
2026-05-07 12:39 55.32083 -60.61608 28800 ft 503 kts 63°
2026-05-07 12:39 55.35587 -60.51046 28807 ft 502 kts 63°
2026-05-07 12:40 55.39071 -60.40506 28802 ft 502 kts 63°
2026-05-07 12:40 55.42561 -60.29901 28803 ft 502 kts 64°
2026-05-07 12:41 55.46049 -60.19282 28801 ft 501 kts 64°
2026-05-07 12:41 55.49541 -60.08686 28810 ft 501 kts 64°
2026-05-07 12:42 55.53026 -59.98058 28805 ft 503 kts 64°
2026-05-07 12:42 55.56507 -59.87404 28803 ft 502 kts 64°
2026-05-07 12:43 55.59956 -59.76797 28809 ft 501 kts 64°
2026-05-07 12:43 55.63406 -59.66139 28816 ft 502 kts 63°
2026-05-07 12:44 55.66856 -59.55433 28825 ft 500 kts 63°
2026-05-07 12:44 55.70282 -59.44756 28821 ft 501 kts 63°
2026-05-07 12:45 55.73704 -59.34038 28836 ft 501 kts 64°
2026-05-07 12:45 55.77116 -59.23311 28834 ft 498 kts 64°
2026-05-07 12:46 55.80492 -59.12642 28835 ft 500 kts 64°
2026-05-07 12:46 55.83889 -59.01870 28819 ft 497 kts 64°
2026-05-07 12:47 55.87230 -58.91216 28826 ft 497 kts 64°
2026-05-07 12:47 55.90588 -58.80462 28831 ft 499 kts 64°
2026-05-07 12:48 55.93932 -58.69709 28838 ft 498 kts 64°
2026-05-07 12:48 55.97264 -58.58939 28837 ft 500 kts 64°
2026-05-07 12:49 56.00605 -58.48097 28835 ft 498 kts 64°
2026-05-07 12:49 56.03929 -58.37259 28835 ft 498 kts 64°
2026-05-07 12:50 56.07225 -58.26466 28828 ft 496 kts 65°
2026-05-07 12:50 56.10506 -58.15665 28830 ft 497 kts 65°
2026-05-07 12:51 56.13799 -58.04780 28823 ft 495 kts 65°
2026-05-07 12:51 56.17039 -57.94022 28823 ft 495 kts 65°
2026-05-07 12:52 56.20305 -57.83119 28834 ft 497 kts 64°
2026-05-07 12:52 56.23558 -57.72214 28840 ft 498 kts 65°
2026-05-07 12:53 56.26799 -57.61307 28853 ft 498 kts 65°
2026-05-07 12:53 56.30044 -57.50326 28860 ft 497 kts 65°
2026-05-07 12:54 56.33259 -57.39397 28859 ft 497 kts 65°
2026-05-07 12:54 56.36482 -57.28394 28852 ft 497 kts 65°
2026-05-07 12:55 56.39682 -57.17413 28855 ft 497 kts 65°
2026-05-07 12:55 56.42860 -57.06455 28860 ft 497 kts 65°
2026-05-07 12:56 56.46049 -56.95407 28859 ft 497 kts 65°
2026-05-07 12:56 56.49235 -56.84322 28859 ft 495 kts 65°
2026-05-07 12:57 56.52383 -56.73309 28885 ft 495 kts 65°
2026-05-07 12:57 56.55518 -56.62294 28889 ft 497 kts 65°
2026-05-07 12:58 56.58670 -56.51166 28891 ft 494 kts 65°
2026-05-07 12:58 56.61794 -56.40083 28893 ft 495 kts 65°
2026-05-07 12:59 56.64899 -56.29014 28886 ft 495 kts 66°
2026-05-07 12:59 56.67990 -56.17944 28893 ft 494 kts 66°
2026-05-07 13:00 56.71095 -56.06767 28896 ft 496 kts 66°
2026-05-07 13:00 56.74183 -55.95596 28906 ft 497 kts 66°
2026-05-07 13:01 56.77281 -55.84339 28898 ft 497 kts 65°
2026-05-07 13:01 56.80342 -55.73156 28904 ft 496 kts 65°
2026-05-07 13:02 56.83398 -55.61939 28911 ft 496 kts 66°
2026-05-07 13:02 56.86438 -55.50726 28918 ft 496 kts 65°
2026-05-07 13:03 56.89476 -55.39464 28915 ft 496 kts 65°
2026-05-07 13:03 56.92510 -55.28161 28916 ft 495 kts 66°
2026-05-07 13:04 56.95519 -55.16898 28926 ft 494 kts 66°
2026-05-07 13:04 56.98527 -55.05577 28933 ft 496 kts 66°
2026-05-07 13:05 57.02149 -54.94825 28948 ft 498 kts 50°
2026-05-07 13:05 57.06551 -54.85117 28940 ft 498 kts 51°
2026-05-07 13:06 57.10910 -54.75262 28935 ft 496 kts 51°
2026-05-07 13:06 57.15226 -54.65418 28936 ft 495 kts 51°
2026-05-07 13:07 57.19513 -54.55591 28940 ft 495 kts 51°
2026-05-07 13:07 57.23811 -54.45698 28944 ft 496 kts 51°
2026-05-07 13:08 57.28070 -54.35849 28947 ft 495 kts 51°
2026-05-07 13:08 57.32344 -54.25927 28942 ft 495 kts 51°
2026-05-07 13:09 57.36620 -54.15960 28946 ft 496 kts 51°
2026-05-07 13:09 57.40874 -54.05998 28948 ft 493 kts 51°
2026-05-07 13:10 57.45112 -53.96038 28950 ft 494 kts 51°
2026-05-07 13:10 57.49356 -53.86019 28960 ft 496 kts 51°
2026-05-07 13:11 57.53589 -53.75986 28959 ft 495 kts 51°
2026-05-07 13:11 57.57820 -53.65915 28966 ft 494 kts 51°
2026-05-07 13:12 57.62021 -53.55873 28977 ft 495 kts 51°
2026-05-07 13:12 57.66215 -53.45804 28977 ft 493 kts 51°
2026-05-07 13:13 57.70404 -53.35701 28981 ft 494 kts 51°
2026-05-07 13:13 57.74600 -53.25546 28979 ft 494 kts 52°
2026-05-07 13:14 57.78760 -53.15431 28980 ft 494 kts 52°
2026-05-07 13:14 57.82933 -53.05241 28982 ft 493 kts 52°
2026-05-07 13:15 57.87084 -52.95061 28980 ft 493 kts 52°
2026-05-07 13:15 57.91221 -52.84874 28985 ft 493 kts 52°
2026-05-07 13:16 57.95370 -52.74610 28992 ft 493 kts 52°
2026-05-07 13:16 57.99484 -52.64392 28996 ft 492 kts 52°
2026-05-07 13:17 58.03583 -52.54168 29002 ft 493 kts 52°
2026-05-07 13:17 58.07704 -52.43844 29004 ft 491 kts 52°
2026-05-07 13:18 58.11786 -52.33572 29002 ft 490 kts 53°
2026-05-07 13:18 58.15842 -52.23322 28999 ft 490 kts 53°
2026-05-07 13:19 58.19916 -52.12981 29004 ft 490 kts 53°
2026-05-07 13:19 58.23957 -52.02681 29008 ft 490 kts 53°
2026-05-07 13:20 58.28005 -51.92317 29016 ft 489 kts 53°
2026-05-07 13:20 58.32027 -51.81975 29014 ft 489 kts 53°
2026-05-07 13:21 58.36035 -51.71626 29016 ft 488 kts 53°
2026-05-07 13:21 58.40046 -51.61219 29022 ft 489 kts 53°
2026-05-07 13:22 58.44035 -51.50826 29019 ft 489 kts 53°
2026-05-07 13:22 58.48037 -51.40355 29021 ft 488 kts 53°
2026-05-07 13:23 58.52005 -51.29927 29012 ft 488 kts 54°
2026-05-07 13:23 58.55992 -51.19399 29021 ft 489 kts 54°
2026-05-07 13:24 58.59957 -51.08889 29023 ft 488 kts 54°
2026-05-07 13:24 58.63884 -50.98430 29024 ft 487 kts 54°
2026-05-07 13:25 58.67835 -50.87862 29027 ft 486 kts 54°
2026-05-07 13:25 58.71736 -50.77375 29028 ft 486 kts 54°
2026-05-07 13:26 58.75630 -50.66868 29030 ft 484 kts 54°
2026-05-07 13:26 58.79521 -50.56319 29039 ft 484 kts 54°
2026-05-07 13:27 58.83409 -50.45731 29036 ft 485 kts 54°
2026-05-07 13:27 58.87287 -50.35125 29050 ft 484 kts 54°
2026-05-07 13:28 58.91121 -50.24591 29041 ft 482 kts 55°
2026-05-07 13:28 58.94953 -50.14014 29047 ft 482 kts 55°
2026-05-07 13:29 58.98768 -50.03394 29052 ft 482 kts 57°
2026-05-07 13:29 59.01929 -49.92027 29056 ft 480 kts 64°
2026-05-07 13:30 59.04897 -49.80428 29069 ft 481 kts 64°
2026-05-07 13:30 59.07813 -49.68787 29072 ft 481 kts 64°
2026-05-07 13:31 59.10711 -49.57113 29062 ft 480 kts 64°
2026-05-07 13:31 59.13588 -49.45452 29077 ft 481 kts 64°
2026-05-07 13:32 59.16465 -49.33724 29075 ft 481 kts 65°
2026-05-07 13:32 59.19306 -49.22080 29078 ft 479 kts 65°
2026-05-07 13:33 59.22147 -49.10372 29081 ft 479 kts 65°
2026-05-07 13:33 59.24966 -48.98694 29103 ft 477 kts 65°
2026-05-07 13:34 59.29193 -48.81066 29105 ft 478 kts 65°
2026-05-07 13:35 59.31982 -48.69356 29106 ft 476 kts 65°
2026-05-07 13:35 59.34749 -48.57672 29105 ft 477 kts 65°
2026-05-07 13:36 59.37529 -48.45873 29111 ft 478 kts 65°
2026-05-07 13:36 59.40287 -48.34103 29112 ft 475 kts 66°
2026-05-07 13:37 59.43029 -48.22339 29112 ft 474 kts 66°
2026-05-07 13:37 59.45747 -48.10609 29116 ft 476 kts 66°
2026-05-07 13:38 59.48473 -47.98782 29116 ft 473 kts 66°
2026-05-07 13:38 59.51160 -47.87059 29131 ft 475 kts 65°
2026-05-07 13:39 59.53860 -47.75216 29136 ft 474 kts 65°
2026-05-07 13:39 59.56525 -47.63462 29141 ft 474 kts 65°
2026-05-07 13:40 59.59197 -47.51608 29156 ft 474 kts 65°
2026-05-07 13:40 59.61847 -47.39787 29152 ft 471 kts 65°
2026-05-07 13:41 59.64481 -47.27968 29151 ft 472 kts 66°
2026-05-07 13:41 59.67119 -47.16068 29164 ft 473 kts 66°
2026-05-07 13:42 59.69722 -47.04258 29173 ft 471 kts 66°
2026-05-07 13:42 59.72310 -46.92450 29177 ft 471 kts 66°
2026-05-07 13:43 59.74896 -46.80590 29193 ft 470 kts 66°
2026-05-07 13:43 59.77477 -46.68676 29191 ft 470 kts 66°
2026-05-07 13:44 59.80031 -46.56824 29199 ft 470 kts 66°
2026-05-07 13:44 59.82567 -46.44985 29211 ft 469 kts 66°
2026-05-07 13:45 59.85098 -46.33107 29213 ft 468 kts 67°
2026-05-07 13:45 59.87625 -46.21173 29219 ft 467 kts 66°
2026-05-07 13:46 59.90123 -46.09310 29230 ft 467 kts 66°
2026-05-07 13:46 59.92598 -45.97491 29235 ft 466 kts 66°
2026-05-07 13:47 59.95087 -45.85533 29240 ft 466 kts 66°
2026-05-07 13:47 59.97549 -45.73632 29250 ft 467 kts 66°
2026-05-07 13:48 60.00001 -45.61715 29240 ft 466 kts 66°
2026-05-07 13:48 60.02447 -45.49757 29254 ft 466 kts 66°
2026-05-07 13:49 60.04884 -45.37775 29249 ft 467 kts 66°
2026-05-07 13:49 60.07304 -45.25807 29256 ft 468 kts 67°
2026-05-07 13:50 60.09726 -45.13751 29243 ft 467 kts 67°
2026-05-07 13:50 60.12139 -45.01659 29219 ft 469 kts 67°
2026-05-07 13:51 60.14537 -44.89575 29223 ft 465 kts 67°
2026-05-07 13:51 60.16898 -44.77611 29246 ft 466 kts 66°
2026-05-07 13:52 60.19275 -44.65496 29241 ft 467 kts 66°
2026-05-07 13:52 60.21620 -44.53468 29211 ft 465 kts 66°
2026-05-07 13:53 60.23952 -44.41434 29227 ft 463 kts 66°
2026-05-07 13:53 60.26279 -44.29350 29255 ft 463 kts 68°
2026-05-07 13:54 60.28585 -44.17299 29269 ft 464 kts 68°
2026-05-07 13:54 60.30877 -44.05250 29257 ft 461 kts 67°
2026-05-07 13:55 60.33155 -43.93201 29259 ft 461 kts 67°
2026-05-07 13:55 60.35414 -43.81181 29285 ft 463 kts 67°
2026-05-07 13:56 60.37682 -43.69030 29307 ft 463 kts 67°
2026-05-07 13:56 60.39933 -43.56903 29301 ft 462 kts 67°
2026-05-07 13:57 60.42164 -43.44798 29308 ft 462 kts 67°
2026-05-07 13:57 60.44383 -43.32689 29301 ft 461 kts 68°
2026-05-07 13:58 60.46604 -43.20491 29310 ft 461 kts 68°
2026-05-07 13:58 60.48800 -43.08356 29312 ft 462 kts 68°
2026-05-07 13:59 60.50980 -42.96225 29312 ft 460 kts 68°
2026-05-07 13:59 60.53146 -42.84101 29315 ft 461 kts 68°
2026-05-07 14:00 60.55325 -42.71821 29318 ft 461 kts 68°
2026-05-07 14:00 60.57489 -42.59542 29318 ft 461 kts 67°
2026-05-07 14:01 60.59634 -42.47294 29318 ft 461 kts 67°
2026-05-07 14:01 60.61768 -42.35033 29322 ft 461 kts 67°
2026-05-07 14:02 60.63881 -42.22813 29322 ft 460 kts 68°
2026-05-07 14:02 60.65982 -42.10574 29314 ft 460 kts 68°
2026-05-07 14:03 60.68075 -41.98308 29320 ft 460 kts 68°
2026-05-07 14:03 60.70152 -41.86054 29326 ft 459 kts 67°
2026-05-07 14:04 60.72212 -41.73820 29331 ft 458 kts 68°
2026-05-07 14:04 60.74267 -41.61525 29340 ft 459 kts 67°
2026-05-07 14:05 60.76303 -41.49265 29342 ft 457 kts 67°
2026-05-07 14:05 60.78331 -41.36969 29339 ft 456 kts 67°
2026-05-07 14:06 60.80344 -41.24684 29337 ft 456 kts 68°
2026-05-07 14:06 60.82328 -41.12493 29335 ft 454 kts 68°
2026-05-07 14:07 60.84310 -41.00229 29344 ft 455 kts 68°
2026-05-07 14:07 60.86274 -40.87990 29333 ft 454 kts 67°
2026-05-07 14:08 60.88231 -40.75712 29336 ft 453 kts 67°
2026-05-07 14:08 60.90162 -40.63510 29339 ft 453 kts 68°
2026-05-07 14:09 60.92095 -40.51223 29339 ft 452 kts 67°
2026-05-07 14:09 60.94006 -40.38971 29335 ft 451 kts 67°
2026-05-07 14:10 60.95895 -40.26797 29337 ft 452 kts 68°
2026-05-07 14:10 60.97792 -40.14463 29334 ft 453 kts 68°
2026-05-07 14:11 60.99672 -40.02150 29338 ft 453 kts 68°
2026-05-07 14:11 61.01438 -39.89717 29341 ft 453 kts 68°
2026-05-07 14:12 61.03170 -39.77334 29340 ft 452 kts 68°
2026-05-07 14:12 61.04891 -39.64912 29338 ft 452 kts 68°
2026-05-07 14:13 61.06603 -39.52443 29343 ft 451 kts 68°
2026-05-07 14:13 61.08290 -39.40058 29349 ft 449 kts 68°
2026-05-07 14:14 61.09970 -39.27638 29342 ft 450 kts 69°
2026-05-07 14:14 61.11638 -39.15209 29349 ft 452 kts 68°
2026-05-07 14:15 61.13295 -39.02750 29344 ft 449 kts 68°
2026-05-07 14:15 61.14936 -38.90318 29347 ft 450 kts 68°
2026-05-07 14:16 61.16566 -38.77884 29349 ft 451 kts 68°
2026-05-07 14:16 61.18187 -38.65404 29342 ft 449 kts 68°
2026-05-07 14:17 61.19783 -38.53013 29346 ft 448 kts 68°
2026-05-07 14:17 61.21379 -38.40529 29346 ft 448 kts 68°
2026-05-07 14:18 61.22949 -38.28140 29346 ft 447 kts 68°
2026-05-07 14:18 61.24521 -38.15648 29357 ft 449 kts 68°
2026-05-07 14:19 61.26076 -38.03161 29359 ft 447 kts 68°
2026-05-07 14:19 61.27611 -37.90753 29354 ft 446 kts 68°
2026-05-07 14:20 61.29139 -37.78299 29364 ft 446 kts 68°
2026-05-07 14:20 61.30653 -37.65841 29357 ft 445 kts 68°
2026-05-07 14:21 61.32148 -37.53439 29363 ft 444 kts 68°
2026-05-07 14:21 61.33639 -37.40966 29363 ft 444 kts 67°
2026-05-07 14:22 61.35100 -37.28635 29353 ft 442 kts 68°
2026-05-07 14:22 61.36560 -37.16215 29357 ft 442 kts 68°
2026-05-07 14:23 61.38002 -37.03821 29366 ft 441 kts 68°
2026-05-07 14:23 61.39437 -36.91401 29365 ft 440 kts 68°
2026-05-07 14:24 61.40857 -36.78988 29368 ft 439 kts 68°
2026-05-07 14:24 61.42249 -36.66707 29362 ft 436 kts 68°
2026-05-07 14:25 61.43637 -36.54377 29374 ft 438 kts 68°
2026-05-07 14:25 61.45007 -36.42063 29371 ft 433 kts 68°
2026-05-07 14:26 61.46349 -36.29930 29381 ft 434 kts 68°
2026-05-07 14:26 61.47694 -36.17629 29378 ft 432 kts 68°
2026-05-07 14:27 61.49018 -36.05423 29381 ft 430 kts 68°
2026-05-07 14:27 61.50323 -35.93288 29384 ft 430 kts 68°
2026-05-07 14:28 61.51614 -35.81155 29383 ft 429 kts 68°
2026-05-07 14:28 61.52900 -35.68966 29386 ft 428 kts 68°
2026-05-07 14:29 61.54169 -35.56831 29386 ft 426 kts 68°
2026-05-07 14:29 61.55412 -35.44822 29384 ft 424 kts 68°
2026-05-07 14:30 61.56643 -35.32814 29377 ft 421 kts 69°
2026-05-07 14:30 61.57878 -35.20689 29383 ft 424 kts 69°
2026-05-07 14:31 61.59079 -35.08743 29377 ft 420 kts 68°
2026-05-07 14:31 61.60276 -34.96748 29377 ft 420 kts 69°
2026-05-07 14:32 61.61457 -34.84793 29376 ft 419 kts 69°
2026-05-07 14:32 61.62623 -34.72882 29371 ft 420 kts 69°
2026-05-07 14:33 61.63787 -34.60865 29368 ft 418 kts 69°
2026-05-07 14:33 61.64928 -34.48968 29370 ft 417 kts 69°
2026-05-07 14:34 61.66061 -34.37043 29377 ft 416 kts 69°
2026-05-07 14:34 61.67183 -34.25124 29376 ft 418 kts 70°
2026-05-07 14:35 61.68290 -34.13226 29377 ft 416 kts 70°
2026-05-07 14:35 61.69395 -34.01266 29379 ft 422 kts 70°
2026-05-07 14:35 61.69957 -33.95138 29609 ft 426 kts 70°
2026-05-07 14:36 61.70513 -33.89030 29854 ft 430 kts 70°
2026-05-07 14:36 61.71079 -33.82805 30117 ft 439 kts 70°
2026-05-07 14:36 61.71650 -33.76449 30620 ft 443 kts 71°
2026-05-07 14:36 61.72221 -33.70076 31092 ft 447 kts 71°
2026-05-07 14:37 61.72797 -33.63594 31554 ft 450 kts 71°
2026-05-07 14:37 61.73936 -33.50685 32398 ft 455 kts 71°
2026-05-07 14:37 61.74511 -33.44110 32781 ft 456 kts 71°
2026-05-07 14:38 61.75080 -33.37567 33153 ft 457 kts 71°
2026-05-07 14:38 61.75653 -33.30952 33367 ft 460 kts 72°
2026-05-07 14:38 61.76794 -33.17646 33367 ft 468 kts 73°
2026-05-07 14:39 61.77950 -33.03992 33361 ft 476 kts 73°
2026-05-07 14:39 61.79092 -32.90315 33370 ft 473 kts 73°
2026-05-07 14:40 61.80221 -32.76644 33372 ft 473 kts 73°
2026-05-07 14:40 61.81333 -32.62999 33370 ft 474 kts 73°
2026-05-07 14:41 61.82432 -32.49348 33363 ft 474 kts 73°
2026-05-07 14:41 61.83523 -32.35603 33369 ft 474 kts 73°
2026-05-07 14:42 61.84594 -32.21941 33368 ft 475 kts 74°
2026-05-07 14:42 61.85660 -32.08150 33371 ft 474 kts 74°
2026-05-07 14:43 61.86705 -31.94457 33368 ft 475 kts 74°
2026-05-07 14:43 61.87741 -31.80683 33364 ft 475 kts 75°
2026-05-07 14:44 61.88762 -31.66906 33350 ft 475 kts 75°
2026-05-07 14:44 61.89767 -31.53169 33340 ft 476 kts 75°
2026-05-07 14:45 61.90770 -31.39250 33342 ft 476 kts 75°
2026-05-07 14:45 61.91748 -31.25478 33333 ft 476 kts 76°
2026-05-07 14:46 61.92720 -31.11595 33333 ft 478 kts 76°
2026-05-07 14:46 61.93677 -30.97693 33330 ft 478 kts 76°
2026-05-07 14:47 61.94623 -30.83767 33332 ft 478 kts 76°
2026-05-07 14:47 61.95551 -30.69871 33335 ft 478 kts 76°
2026-05-07 14:48 61.96469 -30.55926 33338 ft 478 kts 76°
2026-05-07 14:48 61.97372 -30.41961 33331 ft 478 kts 76°
2026-05-07 14:49 61.98262 -30.27993 33334 ft 479 kts 77°
2026-05-07 14:49 61.99137 -30.14017 33336 ft 479 kts 77°
2026-05-07 14:50 62.00002 -30.00052 33334 ft 479 kts 76°
2026-05-07 14:50 62.01658 -29.86526 33337 ft 472 kts 68°
2026-05-07 14:51 62.03458 -29.73223 33324 ft 472 kts 69°
2026-05-07 14:51 62.05215 -29.59756 33326 ft 472 kts 69°
2026-05-07 14:52 62.06937 -29.46328 33319 ft 472 kts 69°
2026-05-07 14:52 62.08636 -29.32909 33320 ft 472 kts 70°
2026-05-07 14:53 62.10330 -29.19403 33320 ft 473 kts 70°
2026-05-07 14:53 62.12009 -29.05889 33323 ft 474 kts 70°
2026-05-07 14:54 62.13671 -28.92398 33318 ft 472 kts 70°
2026-05-07 14:54 62.15318 -28.78900 33321 ft 472 kts 70°
2026-05-07 14:55 62.16954 -28.65373 33314 ft 472 kts 70°
2026-05-07 14:55 62.18579 -28.51807 33305 ft 472 kts 70°
2026-05-07 14:56 62.20188 -28.38255 33294 ft 471 kts 70°
2026-05-07 14:56 62.21791 -28.24637 33285 ft 473 kts 71°
2026-05-07 14:57 62.23375 -28.11037 33285 ft 474 kts 71°
2026-05-07 14:57 62.24959 -27.97315 33282 ft 474 kts 71°
2026-05-07 14:58 62.26517 -27.83678 33285 ft 473 kts 71°
2026-05-07 14:58 62.28067 -27.69987 33277 ft 472 kts 71°
2026-05-07 14:59 62.29592 -27.56386 33282 ft 473 kts 71°
2026-05-07 14:59 62.31110 -27.42715 33269 ft 472 kts 71°
2026-05-07 15:00 62.32620 -27.28979 33267 ft 473 kts 72°
2026-05-07 15:00 62.34120 -27.15195 33272 ft 473 kts 72°
2026-05-07 15:01 62.35599 -27.01463 33272 ft 474 kts 72°
2026-05-07 15:01 62.37070 -26.87672 33262 ft 475 kts 72°
2026-05-07 15:02 62.38522 -26.73920 33272 ft 474 kts 72°
2026-05-07 15:02 62.39967 -26.60085 33266 ft 474 kts 73°
2026-05-07 15:03 62.41392 -26.46306 33274 ft 475 kts 73°
2026-05-07 15:03 62.42818 -26.32360 33268 ft 476 kts 74°
2026-05-07 15:04 62.44231 -26.18394 33273 ft 477 kts 74°
2026-05-07 15:04 62.45629 -26.04426 33271 ft 476 kts 74°
2026-05-07 15:05 62.47006 -25.90513 33266 ft 477 kts 74°
2026-05-07 15:05 62.48378 -25.76499 33264 ft 477 kts 74°
2026-05-07 15:06 62.49728 -25.62555 33264 ft 477 kts 74°
2026-05-07 15:06 62.51076 -25.48477 33262 ft 477 kts 74°
2026-05-07 15:07 62.52394 -25.34547 33254 ft 477 kts 75°
2026-05-07 15:07 62.53707 -25.20520 33252 ft 477 kts 75°
2026-05-07 15:08 62.55003 -25.06501 33238 ft 476 kts 75°
2026-05-07 15:08 62.56283 -24.92494 33227 ft 474 kts 75°
2026-05-07 15:09 62.57542 -24.78556 33224 ft 476 kts 75°
2026-05-07 15:09 62.58801 -24.64449 33220 ft 476 kts 75°
2026-05-07 15:10 62.60039 -24.50409 33217 ft 476 kts 75°
2026-05-07 15:10 62.61267 -24.36318 33216 ft 476 kts 76°
2026-05-07 15:11 62.62481 -24.22208 33212 ft 477 kts 76°
2026-05-07 15:11 62.63676 -24.08129 33208 ft 477 kts 76°
2026-05-07 15:12 62.64781 -23.94961 33211 ft 476 kts 76°
2026-05-07 15:12 62.65950 -23.80847 33202 ft 475 kts 76°
2026-05-07 15:13 62.67098 -23.66826 33206 ft 476 kts 76°
2026-05-07 15:13 62.68240 -23.52687 33199 ft 477 kts 76°
2026-05-07 15:14 62.69371 -23.38489 33199 ft 477 kts 77°
2026-05-07 15:14 62.70490 -23.24250 33196 ft 477 kts 77°
2026-05-07 15:15 62.71589 -23.10069 33194 ft 477 kts 77°
2026-05-07 15:15 62.72673 -22.95890 33192 ft 476 kts 77°
2026-05-07 15:16 62.73743 -22.81701 33187 ft 477 kts 77°
2026-05-07 15:16 62.74800 -22.67484 33181 ft 477 kts 77°
2026-05-07 15:17 62.75846 -22.53214 33174 ft 477 kts 78°
2026-05-07 15:17 62.76874 -22.38976 33170 ft 477 kts 78°
2026-05-07 15:18 62.77893 -22.24653 33172 ft 478 kts 78°
2026-05-07 15:18 62.78892 -22.10394 33168 ft 478 kts 78°
2026-05-07 15:19 62.79879 -21.96108 33167 ft 477 kts 78°
2026-05-07 15:19 62.80849 -21.81831 33164 ft 476 kts 78°
2026-05-07 15:20 62.81802 -21.67583 33155 ft 478 kts 78°
2026-05-07 15:20 62.82747 -21.53233 33149 ft 478 kts 78°
2026-05-07 15:21 62.83678 -21.38867 33148 ft 478 kts 78°
2026-05-07 15:21 62.84593 -21.24513 33147 ft 479 kts 79°
2026-05-07 15:22 62.85494 -21.10141 33148 ft 480 kts 79°
2026-05-07 15:22 62.86386 -20.95671 33148 ft 480 kts 79°
2026-05-07 15:23 62.87259 -20.81240 33142 ft 479 kts 79°
2026-05-07 15:23 62.88112 -20.66917 33135 ft 478 kts 79°
2026-05-07 15:24 62.88953 -20.52519 33134 ft 480 kts 79°
2026-05-07 15:24 62.89781 -20.38089 33133 ft 480 kts 79°
2026-05-07 15:25 62.90599 -20.23577 33132 ft 480 kts 81°
2026-05-07 15:25 62.91400 -20.09099 33126 ft 481 kts 81°
2026-05-07 15:26 62.92185 -19.94614 33127 ft 479 kts 81°
2026-05-07 15:26 62.92952 -19.80187 33131 ft 479 kts 81°
2026-05-07 15:27 62.93708 -19.65679 33129 ft 480 kts 81°
2026-05-07 15:27 62.94449 -19.51181 33133 ft 481 kts 81°
2026-05-07 15:28 62.95177 -19.36630 33130 ft 481 kts 81°
2026-05-07 15:28 62.95892 -19.22031 33131 ft 481 kts 82°
2026-05-07 15:29 62.96587 -19.07533 33121 ft 481 kts 82°
2026-05-07 15:29 62.97272 -18.92902 33110 ft 480 kts 82°
2026-05-07 15:30 62.97930 -18.78343 33104 ft 481 kts 83°
2026-05-07 15:30 62.98432 -18.63721 33105 ft 482 kts 83°
2026-05-07 15:31 62.98905 -18.49135 33103 ft 482 kts 83°
2026-05-07 15:31 62.99359 -18.34453 33106 ft 483 kts 84°
2026-05-07 15:32 62.99797 -18.19789 33103 ft 484 kts 84°
2026-05-07 15:32 63.00220 -18.05023 33111 ft 483 kts 84°
2026-05-07 15:33 63.00626 -17.90385 33097 ft 483 kts 85°
2026-05-07 15:33 63.01017 -17.75664 33088 ft 483 kts 85°
2026-05-07 15:34 63.01393 -17.60988 33101 ft 484 kts 84°
2026-05-07 15:34 63.01755 -17.46246 33096 ft 485 kts 85°
2026-05-07 15:35 63.02101 -17.31501 33091 ft 485 kts 86°
2026-05-07 15:35 63.02434 -17.16657 33082 ft 486 kts 86°
2026-05-07 15:36 63.02748 -17.01966 33081 ft 486 kts 86°
2026-05-07 15:36 63.03051 -16.87087 33088 ft 487 kts 86°
2026-05-07 15:37 63.03337 -16.72248 33075 ft 485 kts 86°
2026-05-07 15:37 63.03605 -16.57559 33063 ft 484 kts 86°
2026-05-07 15:38 63.03860 -16.42750 33059 ft 485 kts 86°
2026-05-07 15:38 63.04100 -16.27941 33046 ft 486 kts 87°
2026-05-07 15:39 63.04323 -16.13155 33046 ft 486 kts 87°
2026-05-07 15:39 63.04532 -15.98299 33027 ft 486 kts 88°
2026-05-07 15:40 63.04724 -15.83548 33030 ft 485 kts 88°
2026-05-07 15:40 63.04901 -15.68710 33029 ft 485 kts 88°
2026-05-07 15:41 63.05063 -15.53915 33024 ft 486 kts 88°
2026-05-07 15:41 63.05209 -15.39144 33016 ft 487 kts 88°
2026-05-07 15:42 63.05340 -15.24263 33017 ft 486 kts 89°
2026-05-07 15:42 63.05455 -15.09446 33015 ft 486 kts 89°
2026-05-07 15:43 63.05555 -14.94640 33014 ft 486 kts 89°
2026-05-07 15:43 63.05640 -14.79804 33002 ft 486 kts 89°
2026-05-07 15:44 63.05709 -14.65028 32998 ft 485 kts 89°
2026-05-07 15:44 63.05762 -14.50227 32996 ft 485 kts 89°
2026-05-07 15:45 63.05800 -14.35412 32990 ft 485 kts 89°
2026-05-07 15:45 63.05823 -14.20617 32976 ft 486 kts 90°
2026-05-07 15:46 63.05827 -13.98328 32980 ft 485 kts 90°
2026-05-07 15:47 63.05811 -13.83554 32970 ft 485 kts 90°
2026-05-07 15:47 63.05780 -13.68733 32962 ft 483 kts 90°
2026-05-07 15:48 63.05733 -13.54028 32948 ft 484 kts 90°
2026-05-07 15:48 63.05677 -13.40471 32952 ft 484 kts 90°
2026-05-07 15:49 63.05602 -13.25877 32950 ft 484 kts 91°
2026-05-07 15:49 63.05508 -13.10867 32952 ft 485 kts 91°
2026-05-07 15:50 63.05401 -12.96087 32948 ft 485 kts 91°
2026-05-07 15:50 63.05278 -12.81317 32946 ft 485 kts 91°
2026-05-07 15:51 63.05140 -12.66500 32933 ft 486 kts 91°
2026-05-07 15:51 63.04985 -12.51663 32929 ft 484 kts 91°
2026-05-07 15:52 63.04817 -12.36890 32913 ft 484 kts 92°
2026-05-07 15:52 63.04633 -12.22157 32899 ft 485 kts 93°
2026-05-07 15:53 63.04433 -12.07368 32902 ft 485 kts 93°
2026-05-07 15:53 63.04218 -11.92574 32883 ft 484 kts 93°
2026-05-07 15:54 63.03988 -11.77889 32885 ft 485 kts 93°
2026-05-07 15:54 63.03741 -11.63035 32881 ft 487 kts 93°
2026-05-07 15:55 63.03479 -11.48194 32872 ft 487 kts 93°
2026-05-07 15:55 63.03200 -11.33357 32861 ft 486 kts 94°
2026-05-07 15:56 63.02908 -11.18589 32873 ft 485 kts 95°
2026-05-07 15:56 63.02599 -11.03775 32857 ft 487 kts 94°
2026-05-07 15:57 63.02275 -10.88967 32862 ft 487 kts 95°
2026-05-07 15:57 63.01934 -10.74120 32863 ft 486 kts 95°
2026-05-07 15:58 63.01580 -10.59350 32866 ft 487 kts 95°
2026-05-07 15:58 63.01208 -10.44497 32861 ft 489 kts 95°
2026-05-07 15:59 63.00821 -10.29681 32859 ft 488 kts 96°
2026-05-07 15:59 63.00419 -10.14878 32849 ft 488 kts 96°
2026-05-07 16:00 63.00006 -10.00032 32839 ft 488 kts 95°
2026-05-07 16:00 63.00435 -9.85130 32856 ft 490 kts 88°
2026-05-07 16:01 63.00996 -9.70238 32851 ft 490 kts 88°
2026-05-07 16:01 63.01503 -9.55307 32830 ft 492 kts 88°
2026-05-07 16:02 63.01982 -9.40340 32835 ft 493 kts 89°
2026-05-07 16:02 63.02443 -9.25339 32832 ft 494 kts 90°
2026-05-07 16:03 63.02888 -9.10279 32846 ft 493 kts 90°
2026-05-07 16:03 63.03314 -8.95303 32822 ft 493 kts 90°
2026-05-07 16:04 63.03725 -8.80293 32828 ft 494 kts 90°
2026-05-07 16:04 63.04124 -8.65164 32829 ft 497 kts 90°
2026-05-07 16:05 63.04504 -8.50087 32835 ft 497 kts 90°
2026-05-07 16:05 63.04871 -8.34935 32818 ft 499 kts 91°
2026-05-07 16:06 63.05222 -8.19745 32819 ft 499 kts 91°
2026-05-07 16:06 63.05558 -8.04462 32824 ft 499 kts 91°
2026-05-07 16:07 63.05876 -7.89293 32816 ft 500 kts 91°
2026-05-07 16:07 63.06178 -7.74069 32827 ft 501 kts 91°
2026-05-07 16:08 63.06466 -7.58766 32829 ft 502 kts 91°
2026-05-07 16:08 63.06738 -7.43397 32822 ft 503 kts 91°
2026-05-07 16:09 63.06994 -7.27986 32822 ft 505 kts 92°
2026-05-07 16:09 63.07234 -7.12564 32799 ft 506 kts 92°
2026-05-07 16:10 63.07456 -6.97162 32803 ft 507 kts 92°
2026-05-07 16:10 63.07663 -6.81659 32806 ft 509 kts 92°
2026-05-07 16:11 63.07852 -6.66180 32820 ft 509 kts 92°
2026-05-07 16:11 63.08027 -6.50540 32799 ft 511 kts 92°
2026-05-07 16:12 63.08183 -6.35014 32801 ft 511 kts 92°
2026-05-07 16:12 63.08324 -6.19358 32814 ft 511 kts 93°
2026-05-07 16:13 63.08447 -6.03696 32829 ft 511 kts 93°
2026-05-07 16:13 63.08552 -5.88096 32809 ft 513 kts 94°
2026-05-07 16:14 63.08641 -5.72391 32826 ft 514 kts 93°
2026-05-07 16:14 63.08712 -5.56687 32820 ft 515 kts 93°
2026-05-07 16:15 63.08766 -5.40961 32814 ft 517 kts 93°
2026-05-07 16:15 63.08802 -5.25221 32814 ft 518 kts 94°
2026-05-07 16:16 63.08823 -5.09320 32830 ft 518 kts 94°
2026-05-07 16:16 63.08824 -4.93565 32822 ft 518 kts 94°
2026-05-07 16:17 63.08808 -4.77695 32828 ft 518 kts 94°
2026-05-07 16:17 63.08774 -4.61923 32837 ft 520 kts 94°
2026-05-07 16:18 63.08722 -4.46018 32840 ft 521 kts 94°
2026-05-07 16:18 63.08653 -4.30026 32850 ft 521 kts 95°
2026-05-07 16:19 63.08567 -4.14213 32850 ft 520 kts 95°
2026-05-07 16:19 63.08460 -3.98247 32860 ft 522 kts 95°
2026-05-07 16:20 63.08337 -3.82317 32865 ft 521 kts 94°
2026-05-07 16:20 63.08197 -3.66447 32879 ft 521 kts 94°
2026-05-07 16:21 63.08037 -3.50434 32880 ft 523 kts 94°
2026-05-07 16:21 63.07859 -3.34460 32866 ft 525 kts 95°
2026-05-07 16:22 63.07664 -3.18487 32886 ft 523 kts 95°
2026-05-07 16:22 63.07451 -3.02547 32914 ft 525 kts 95°
2026-05-07 16:23 63.07219 -2.86469 32914 ft 525 kts 95°
2026-05-07 16:23 63.06970 -2.70515 32925 ft 524 kts 95°
2026-05-07 16:24 63.06700 -2.54471 32936 ft 525 kts 95°
2026-05-07 16:24 63.06413 -2.38418 32946 ft 527 kts 95°
2026-05-07 16:25 63.06108 -2.22384 32942 ft 527 kts 96°
2026-05-07 16:25 63.05785 -2.06334 32947 ft 526 kts 96°
2026-05-07 16:26 63.05443 -1.90277 32960 ft 526 kts 96°
2026-05-07 16:26 63.05083 -1.74244 32965 ft 528 kts 96°
2026-05-07 16:27 63.04703 -1.58103 32971 ft 528 kts 96°
2026-05-07 16:27 63.04307 -1.42062 32982 ft 528 kts 96°
2026-05-07 16:28 63.03892 -1.25988 32979 ft 528 kts 97°
2026-05-07 16:28 63.03457 -1.09884 32990 ft 529 kts 96°
2026-05-07 16:29 63.03004 -0.93787 32990 ft 529 kts 96°
2026-05-07 16:29 63.02531 -0.77634 32993 ft 530 kts 96°
2026-05-07 16:30 63.02042 -0.61543 32990 ft 530 kts 96°
2026-05-07 16:30 63.01533 -0.45440 32999 ft 531 kts 96°
2026-05-07 16:31 63.01006 -0.29323 32989 ft 531 kts 97°
2026-05-07 16:31 63.00460 -0.13210 32993 ft 530 kts 97°
2026-05-07 16:32 63.00296 0.02957 33006 ft 534 kts 85°
2026-05-07 16:32 63.02046 0.18761 33012 ft 536 kts 68°
2026-05-07 16:33 63.04583 0.34062 33010 ft 535 kts 71°
2026-05-07 16:33 63.06827 0.49599 33018 ft 536 kts 72°
2026-05-07 16:34 63.08995 0.65347 33019 ft 536 kts 73°
2026-05-07 16:34 63.11106 0.80990 33028 ft 536 kts 73°
2026-05-07 16:35 63.13194 0.96659 33025 ft 537 kts 73°
2026-05-07 16:35 63.15287 1.12529 33024 ft 537 kts 73°
2026-05-07 16:36 63.17348 1.28323 33029 ft 537 kts 73°
2026-05-07 16:36 63.19388 1.44108 33049 ft 537 kts 73°
2026-05-07 16:37 63.21424 1.60022 33051 ft 537 kts 73°
2026-05-07 16:37 63.23433 1.75880 33039 ft 538 kts 74°
2026-05-07 16:38 63.25423 1.91761 33050 ft 537 kts 74°
2026-05-07 16:38 63.27395 2.07656 33055 ft 538 kts 74°
2026-05-07 16:39 63.29355 2.23619 33056 ft 538 kts 74°
2026-05-07 16:39 63.31306 2.39682 33060 ft 537 kts 74°
2026-05-07 16:40 63.33228 2.55662 33066 ft 538 kts 74°
2026-05-07 16:40 63.35130 2.71652 33074 ft 539 kts 75°
2026-05-07 16:41 63.37020 2.87718 33065 ft 538 kts 75°
2026-05-07 16:41 63.38899 3.03864 33077 ft 538 kts 75°
2026-05-07 16:42 63.40748 3.19922 33088 ft 538 kts 75°
2026-05-07 16:42 63.42575 3.35980 33087 ft 539 kts 75°
2026-05-07 16:43 63.44397 3.52169 33093 ft 539 kts 74°
2026-05-07 16:43 63.46206 3.68425 33083 ft 538 kts 75°
2026-05-07 16:44 63.47984 3.84573 33083 ft 539 kts 75°
2026-05-07 16:44 63.49753 4.00842 33077 ft 539 kts 75°
2026-05-07 16:45 63.51500 4.17102 33087 ft 540 kts 75°
2026-05-07 16:45 63.53062 4.33525 33095 ft 541 kts 83°
2026-05-07 16:46 63.52980 4.50278 33098 ft 540 kts 95°
2026-05-07 16:46 63.51495 4.66614 33106 ft 535 kts 114°
2026-05-07 16:47 63.48087 4.81004 33101 ft 524 kts 131°
2026-05-07 16:47 63.43809 4.94172 33108 ft 526 kts 130°
2026-05-07 16:48 63.39652 5.07460 33101 ft 526 kts 129°
2026-05-07 16:48 63.35504 5.20812 33108 ft 527 kts 129°
2026-05-07 16:49 63.31340 5.34186 33108 ft 528 kts 129°
2026-05-07 16:49 63.27159 5.47540 33111 ft 529 kts 129°
2026-05-07 16:50 63.22990 5.60787 33134 ft 527 kts 129°
2026-05-07 16:50 63.18801 5.74022 33105 ft 527 kts 129°
2026-05-07 16:51 63.14589 5.87245 33126 ft 528 kts 130°
2026-05-07 16:51 63.10358 6.00454 33140 ft 529 kts 130°
2026-05-07 16:52 63.06108 6.13649 33148 ft 529 kts 130°
2026-05-07 16:52 63.01883 6.26689 33150 ft 528 kts 129°
2026-05-07 16:53 62.97606 6.39809 33121 ft 530 kts 129°
2026-05-07 16:53 62.93324 6.52876 33132 ft 530 kts 130°
2026-05-07 16:54 62.88994 6.66008 33133 ft 530 kts 130°
2026-05-07 16:54 62.84686 6.78999 33112 ft 531 kts 131°
2026-05-07 16:55 62.80358 6.91976 33128 ft 531 kts 130°
2026-05-07 16:55 62.76013 7.04934 33103 ft 531 kts 130°
2026-05-07 16:56 62.71632 7.17921 33130 ft 533 kts 130°
2026-05-07 16:56 62.65070 7.37243 33133 ft 534 kts 130°
2026-05-07 16:57 62.60638 7.50196 33122 ft 534 kts 130°
2026-05-07 16:57 62.56210 7.63069 33105 ft 534 kts 130°
2026-05-07 16:58 62.51802 7.75805 33127 ft 532 kts 131°
2026-05-07 16:58 62.47356 7.88583 33081 ft 534 kts 131°
2026-05-07 16:59 62.42872 8.01398 32993 ft 536 kts 131°
2026-05-07 16:59 62.38403 8.14102 33009 ft 535 kts 131°
2026-05-07 17:00 62.33913 8.26791 33051 ft 536 kts 131°
2026-05-07 17:00 62.29398 8.39484 33069 ft 535 kts 131°
2026-05-07 17:01 62.27175 8.45712 33393 ft 527 kts 131°
2026-05-07 17:01 62.24948 8.51929 33735 ft 525 kts 131°
2026-05-07 17:01 62.22751 8.58039 34018 ft 523 kts 131°
2026-05-07 17:01 62.20525 8.64223 34319 ft 521 kts 131°
2026-05-07 17:02 62.18322 8.70323 34618 ft 518 kts 133°
2026-05-07 17:02 62.16144 8.76335 34906 ft 515 kts 133°
2026-05-07 17:02 62.13964 8.82336 35191 ft 513 kts 132°
2026-05-07 17:02 62.11790 8.88309 35474 ft 509 kts 132°
2026-05-07 17:03 62.09609 8.94285 35747 ft 506 kts 132°
2026-05-07 17:03 62.07475 9.00115 36021 ft 502 kts 132°
2026-05-07 17:03 62.05325 9.05975 36306 ft 502 kts 131°
2026-05-07 17:03 62.03157 9.11867 36614 ft 501 kts 131°
2026-05-07 17:04 62.01012 9.17689 36912 ft 500 kts 131°
2026-05-07 17:04 61.98866 9.23489 37038 ft 499 kts 131°
2026-05-07 17:04 61.94546 9.35128 37047 ft 507 kts 131°
2026-05-07 17:05 61.90101 9.47043 37016 ft 516 kts 131°
2026-05-07 17:05 61.85616 9.59005 37019 ft 520 kts 131°
2026-05-07 17:06 61.81090 9.71014 37013 ft 517 kts 132°
2026-05-07 17:06 61.76620 9.82809 37042 ft 516 kts 132°
2026-05-07 17:07 61.72105 9.94662 37044 ft 518 kts 132°
2026-05-07 17:07 61.67561 10.06528 37032 ft 519 kts 132°
2026-05-07 17:08 61.63026 10.18313 37037 ft 516 kts 132°
2026-05-07 17:08 61.58480 10.30063 37031 ft 517 kts 132°
2026-05-07 17:09 61.53916 10.41798 37046 ft 518 kts 132°
2026-05-07 17:09 61.49341 10.53505 37045 ft 518 kts 132°
2026-05-07 17:10 61.44736 10.65224 37050 ft 518 kts 133°
2026-05-07 17:10 61.40145 10.76851 37023 ft 517 kts 133°
2026-05-07 17:11 61.35569 10.88376 37044 ft 519 kts 133°
2026-05-07 17:11 61.30951 10.99953 37035 ft 519 kts 133°
2026-05-07 17:12 61.26318 11.11506 37063 ft 518 kts 133°
2026-05-07 17:12 61.21704 11.22955 37074 ft 519 kts 133°
2026-05-07 17:13 61.17030 11.34498 37062 ft 519 kts 133°
2026-05-07 17:13 61.12387 11.45902 37079 ft 518 kts 133°
2026-05-07 17:14 61.07709 11.57332 37073 ft 520 kts 133°
2026-05-07 17:14 61.03041 11.68691 37074 ft 520 kts 134°
2026-05-07 17:15 60.98348 11.80045 37092 ft 519 kts 134°
2026-05-07 17:15 60.93639 11.91382 37087 ft 519 kts 134°
2026-05-07 17:16 60.88943 12.02634 37077 ft 518 kts 134°
2026-05-07 17:16 60.84238 12.13851 37082 ft 517 kts 134°
2026-05-07 17:17 60.79778 12.24434 37082 ft 516 kts 134°
2026-05-07 17:17 60.75051 12.35594 37091 ft 520 kts 134°
2026-05-07 17:18 60.70428 12.46912 37079 ft 517 kts 132°
2026-05-07 17:18 60.65850 12.58270 37091 ft 518 kts 132°
2026-05-07 17:19 60.61259 12.69618 37090 ft 518 kts 133°
2026-05-07 17:19 60.56643 12.80971 37072 ft 518 kts 133°
2026-05-07 17:20 60.52038 12.92242 37071 ft 518 kts 133°
2026-05-07 17:20 60.47425 13.03479 37093 ft 516 kts 133°
2026-05-07 17:21 60.42816 13.14650 37073 ft 517 kts 133°
2026-05-07 17:21 60.38219 13.25740 37085 ft 517 kts 133°
2026-05-07 17:22 60.33585 13.36864 37077 ft 516 kts 133°
2026-05-07 17:22 60.28929 13.47988 37086 ft 517 kts 133°
2026-05-07 17:23 60.24288 13.59022 37082 ft 517 kts 133°
2026-05-07 17:23 60.19609 13.70093 37084 ft 516 kts 134°
2026-05-07 17:24 60.14962 13.81036 37080 ft 516 kts 134°
2026-05-07 17:24 60.10269 13.92031 37086 ft 516 kts 134°
2026-05-07 17:25 60.05590 14.02946 37079 ft 517 kts 134°
2026-05-07 17:25 60.00893 14.13847 37080 ft 517 kts 134°
2026-05-07 17:26 59.96205 14.24677 37073 ft 516 kts 134°
2026-05-07 17:26 59.91519 14.35455 37068 ft 515 kts 134°
2026-05-07 17:27 59.86833 14.46180 37062 ft 515 kts 134°
2026-05-07 17:27 59.82113 14.56931 37086 ft 512 kts 134°
2026-05-07 17:28 59.77428 14.67553 37073 ft 513 kts 135°
2026-05-07 17:28 59.72730 14.78157 37068 ft 513 kts 135°
2026-05-07 17:29 59.68006 14.88769 37065 ft 512 kts 135°
2026-05-07 17:29 59.63302 14.99286 37075 ft 512 kts 135°
2026-05-07 17:30 59.60935 15.04562 36860 ft 512 kts 135°
2026-05-07 17:30 59.58586 15.09786 37078 ft 508 kts 135°
2026-05-07 17:30 59.53857 15.20262 37011 ft 512 kts 135°
2026-05-07 17:31 59.51486 15.25498 37180 ft 511 kts 135°
2026-05-07 17:31 59.49120 15.30710 36876 ft 512 kts 135°
2026-05-07 17:31 59.46763 15.35894 37224 ft 509 kts 135°
2026-05-07 17:31 59.44392 15.41090 37045 ft 510 kts 135°
2026-05-07 17:32 59.39640 15.51477 37089 ft 511 kts 135°
2026-05-07 17:32 59.34896 15.61798 37086 ft 509 kts 135°
2026-05-07 17:33 59.30183 15.72007 37068 ft 507 kts 135°
2026-05-07 17:33 59.25460 15.82192 37077 ft 505 kts 135°
2026-05-07 17:34 59.20721 15.92363 37087 ft 507 kts 135°
2026-05-07 17:34 59.15963 16.02536 37079 ft 506 kts 135°
2026-05-07 17:35 59.11234 16.12598 37069 ft 506 kts 135°
2026-05-07 17:35 59.06466 16.22696 37072 ft 505 kts 135°
2026-05-07 17:36 59.01693 16.32762 37085 ft 506 kts 135°
2026-05-07 17:36 58.96922 16.42781 37074 ft 506 kts 135°
2026-05-07 17:37 58.92124 16.52811 37080 ft 507 kts 135°
2026-05-07 17:37 58.87295 16.62861 37084 ft 507 kts 135°
2026-05-07 17:38 58.82503 16.72795 37091 ft 506 kts 136°
2026-05-07 17:38 58.77741 16.82620 37090 ft 499 kts 136°
2026-05-07 17:39 58.72986 16.92389 37103 ft 499 kts 136°
2026-05-07 17:39 58.68199 17.02180 37104 ft 501 kts 136°
2026-05-07 17:40 58.63425 17.11904 37107 ft 500 kts 136°
2026-05-07 17:40 58.58656 17.21578 37104 ft 497 kts 136°
2026-05-07 17:41 58.53896 17.31193 37108 ft 497 kts 136°
2026-05-07 17:41 58.49112 17.40813 37109 ft 497 kts 136°
2026-05-07 17:42 58.44352 17.50348 37106 ft 495 kts 136°
2026-05-07 17:42 58.39602 17.59820 37118 ft 496 kts 136°
2026-05-07 17:43 58.34804 17.69350 37100 ft 495 kts 137°
2026-05-07 17:43 58.30035 17.78781 37105 ft 493 kts 137°
2026-05-07 17:44 58.25297 17.88113 37104 ft 492 kts 137°
2026-05-07 17:44 58.20531 17.97461 37110 ft 492 kts 137°
2026-05-07 17:45 58.15783 18.06737 37106 ft 491 kts 137°
2026-05-07 17:45 58.10992 18.16057 37111 ft 491 kts 137°
2026-05-07 17:46 58.06239 18.25266 37115 ft 491 kts 137°
2026-05-07 17:46 58.01462 18.34485 37115 ft 489 kts 137°
2026-05-07 17:47 57.96657 18.43719 37111 ft 490 kts 137°
2026-05-07 17:47 57.91908 18.52810 37107 ft 490 kts 137°
2026-05-07 17:48 57.87115 18.61947 37109 ft 489 kts 137°
2026-05-07 17:48 57.82308 18.71075 37105 ft 487 kts 138°
2026-05-07 17:49 57.77548 18.80076 37105 ft 487 kts 138°
2026-05-07 17:49 57.72745 18.89123 37101 ft 487 kts 138°
2026-05-07 17:50 57.67946 18.98126 37100 ft 487 kts 138°
2026-05-07 17:50 57.63166 19.07060 37102 ft 487 kts 138°
2026-05-07 17:51 57.58366 19.15994 37103 ft 486 kts 138°
2026-05-07 17:51 57.53584 19.24859 37100 ft 484 kts 138°
2026-05-07 17:52 57.48762 19.33764 37099 ft 484 kts 138°
2026-05-07 17:52 57.43972 19.42576 37099 ft 484 kts 138°
2026-05-07 17:53 57.39173 19.51368 37101 ft 485 kts 138°
2026-05-07 17:53 57.34351 19.60170 37099 ft 484 kts 138°
2026-05-07 17:54 57.29548 19.68903 37095 ft 484 kts 139°
2026-05-07 17:54 57.24730 19.77629 37095 ft 483 kts 139°
2026-05-07 17:55 57.19939 19.86273 37096 ft 483 kts 139°
2026-05-07 17:55 57.15216 19.95091 37090 ft 484 kts 132°
2026-05-07 17:56 57.11430 20.05476 37093 ft 487 kts 127°
2026-05-07 17:56 57.07653 20.15783 37088 ft 487 kts 128°
2026-05-07 17:57 57.04473 20.24248 37085 ft 486 kts 128°
2026-05-07 17:57 56.99988 20.36052 37086 ft 487 kts 128°
2026-05-07 17:58 56.96098 20.46220 37079 ft 487 kts 128°
2026-05-07 17:58 56.92209 20.56339 37082 ft 487 kts 128°
2026-05-07 17:59 56.88325 20.66399 37083 ft 486 kts 129°
2026-05-07 17:59 56.84421 20.76469 37068 ft 484 kts 130°
2026-05-07 18:00 56.80506 20.86526 37063 ft 484 kts 130°
2026-05-07 18:00 56.76588 20.96546 37064 ft 484 kts 130°
2026-05-07 18:01 56.72663 21.06544 37055 ft 484 kts 130°
2026-05-07 18:01 56.68737 21.16504 37055 ft 484 kts 130°
2026-05-07 18:02 56.62844 21.31379 37057 ft 483 kts 130°
2026-05-07 18:03 56.58887 21.41316 37069 ft 485 kts 130°
2026-05-07 18:03 56.54932 21.51208 37072 ft 484 kts 130°
2026-05-07 18:04 56.50957 21.61109 37069 ft 484 kts 130°
2026-05-07 18:04 56.47012 21.70897 37023 ft 482 kts 131°
2026-05-07 18:04 56.45015 21.75828 36547 ft 491 kts 131°
2026-05-07 18:05 56.42981 21.80850 36105 ft 493 kts 132°
2026-05-07 18:05 56.40962 21.85826 35803 ft 492 kts 132°
2026-05-07 18:05 56.38950 21.90773 35482 ft 490 kts 133°
2026-05-07 18:05 56.36844 21.95500 35130 ft 480 kts 139°
2026-05-07 18:06 56.34586 21.99750 34775 ft 474 kts 141°
2026-05-07 18:06 56.32319 22.04002 34255 ft 469 kts 141°
2026-05-07 18:06 56.30065 22.08210 33737 ft 464 kts 141°
2026-05-07 18:06 56.27867 22.12301 33219 ft 460 kts 141°
2026-05-07 18:07 56.25663 22.16393 32698 ft 456 kts 142°
2026-05-07 18:07 56.23463 22.20468 32170 ft 452 kts 142°
2026-05-07 18:07 56.21304 22.24458 31645 ft 448 kts 142°
2026-05-07 18:07 56.19120 22.28489 31114 ft 444 kts 142°
2026-05-07 18:08 56.17007 22.32380 30589 ft 441 kts 142°
2026-05-07 18:08 56.14888 22.36275 30058 ft 437 kts 142°
2026-05-07 18:08 56.12787 22.40129 29526 ft 434 kts 142°
2026-05-07 18:08 56.10696 22.43959 28989 ft 430 kts 142°
2026-05-07 18:09 56.08596 22.47802 28453 ft 428 kts 142°
2026-05-07 18:09 56.06528 22.51577 27925 ft 425 kts 141°
2026-05-07 18:09 56.04474 22.55323 27393 ft 422 kts 141°
2026-05-07 18:09 56.02429 22.59047 26859 ft 419 kts 141°
2026-05-07 18:10 56.00367 22.62795 26322 ft 416 kts 141°
2026-05-07 18:10 55.98338 22.66478 25785 ft 412 kts 141°
2026-05-07 18:10 55.96305 22.70162 25237 ft 409 kts 141°
2026-05-07 18:10 55.94311 22.73767 24707 ft 406 kts 141°
2026-05-07 18:11 55.92337 22.77333 24188 ft 404 kts 141°
2026-05-07 18:11 55.91000 22.79744 23829 ft 402 kts 141°
2026-05-07 18:11 55.88376 22.84470 23141 ft 398 kts 141°
2026-05-07 18:11 55.86424 22.87982 22626 ft 396 kts 141°
2026-05-07 18:12 55.84512 22.91415 22122 ft 393 kts 140°
2026-05-07 18:12 55.82576 22.94884 21607 ft 391 kts 140°
2026-05-07 18:12 55.80658 22.98316 21096 ft 389 kts 140°
2026-05-07 18:12 55.78776 23.01680 20587 ft 388 kts 140°
2026-05-07 18:13 55.76869 23.05080 20104 ft 392 kts 140°
2026-05-07 18:13 55.74893 23.08600 19601 ft 394 kts 139°
2026-05-07 18:13 55.72968 23.12028 19102 ft 391 kts 139°
2026-05-07 18:13 55.71050 23.15437 18592 ft 388 kts 139°
2026-05-07 18:14 55.69146 23.18815 18097 ft 384 kts 139°
2026-05-07 18:14 55.67253 23.22171 17592 ft 382 kts 139°
2026-05-07 18:14 55.65374 23.25494 17109 ft 380 kts 139°
2026-05-07 18:14 55.63516 23.28775 16624 ft 378 kts 138°
2026-05-07 18:15 55.61657 23.32050 16126 ft 377 kts 138°
2026-05-07 18:15 55.59793 23.35342 15644 ft 378 kts 138°
2026-05-07 18:15 55.57928 23.38606 15177 ft 383 kts 137°
2026-05-07 18:15 55.56045 23.41928 14673 ft 381 kts 137°
2026-05-07 18:16 55.54162 23.45223 14184 ft 377 kts 137°
2026-05-07 18:16 55.52302 23.48486 13692 ft 375 kts 137°
2026-05-07 18:16 55.50464 23.51698 13199 ft 373 kts 137°
2026-05-07 18:16 55.48622 23.54917 12701 ft 371 kts 137°
2026-05-07 18:17 55.46759 23.58021 12195 ft 366 kts 143°
2026-05-07 18:17 55.44590 23.60280 11750 ft 360 kts 160°
2026-05-07 18:17 55.42175 23.61383 11405 ft 354 kts 173°
2026-05-07 18:17 55.39741 23.62075 11023 ft 348 kts 173°
2026-05-07 18:18 55.37366 23.62700 10642 ft 342 kts 174°
2026-05-07 18:18 55.35023 23.63278 10260 ft 337 kts 174°
2026-05-07 18:18 55.32717 23.63820 9883 ft 333 kts 174°
2026-05-07 18:18 55.30409 23.64354 9499 ft 329 kts 174°
2026-05-07 18:19 55.28159 23.64869 9120 ft 326 kts 174°
2026-05-07 18:19 55.25905 23.65379 8736 ft 323 kts 175°
2026-05-07 18:19 55.23700 23.65878 8355 ft 320 kts 175°
2026-05-07 18:19 55.21491 23.66376 7967 ft 317 kts 175°
2026-05-07 18:20 55.19328 23.66862 7583 ft 315 kts 174°
2026-05-07 18:20 55.17464 23.67280 7254 ft 313 kts 174°
2026-05-07 18:20 55.15286 23.67770 6867 ft 311 kts 174°
2026-05-07 18:20 55.13118 23.68255 6472 ft 309 kts 174°
2026-05-07 18:21 55.10978 23.68733 6081 ft 307 kts 174°
2026-05-07 18:21 55.08865 23.69205 5700 ft 306 kts 174°
2026-05-07 18:21 55.06745 23.69679 5309 ft 305 kts 173°
2026-05-07 18:21 55.04644 23.70163 4975 ft 301 kts 170°
2026-05-07 18:22 55.02713 23.71293 4964 ft 285 kts 157°
2026-05-07 18:22 55.01514 23.72183 4956 ft 279 kts 158°
2026-05-07 18:22 54.99129 23.73934 4963 ft 277 kts 157°
2026-05-07 18:22 54.97401 23.75249 4956 ft 265 kts 152°
2026-05-07 18:23 54.96018 23.77211 4662 ft 256 kts 123°
2026-05-07 18:23 54.95367 23.79971 4099 ft 245 kts 94°
2026-05-07 18:23 54.95337 23.82888 3351 ft 238 kts 85°
2026-05-07 18:23 54.95379 23.85704 2597 ft 234 kts 84°
2026-05-07 18:24 54.95443 23.88486 2128 ft 217 kts 84°
2026-05-07 18:24 54.95494 23.90882 2146 ft 187 kts 82°
2026-05-07 18:24 54.95609 23.93061 1876 ft 173 kts 80°
2026-05-07 18:24 54.95714 23.95056 1616 ft 164 kts 80°
2026-05-07 18:25 54.95818 23.97040 1383 ft 164 kts 80°
2026-05-07 18:25 54.95916 23.98959 1146 ft 157 kts 81°
2026-05-07 18:25 54.96008 24.00805 899 ft 146 kts 81°
2026-05-07 18:25 54.96094 24.02518 763 ft 144 kts 81°
2026-05-07 18:26 54.96186 24.04316 522 ft 151 kts 82°
2026-05-07 18:26 54.96278 24.06135 285 ft 149 kts 83°
2026-05-07 18:26 54.96364 24.07875 237 ft 131 kts 84°
2026-05-07 18:26 54.96426 24.09120 244 ft 73 kts 85°
2026-05-07 18:27 54.96455 24.09626 248 ft 14 kts 64°
2026-05-07 18:27 54.96538 24.09650 246 ft 8 kts 352°
2026-05-07 18:27 54.96606 24.09635 245 ft 10 kts 344°
2026-05-07 18:27 54.96632 24.09536 244 ft 9 kts 263°
2026-05-07 18:28 54.96626 24.09402 244 ft 14 kts 266°
2026-05-07 18:28 54.96616 24.09180 243 ft 20 kts 266°
2026-05-07 18:28 54.96604 24.08909 240 ft 23 kts 265°
2026-05-07 18:28 54.96592 24.08634 240 ft 19 kts 263°
2026-05-07 18:29 54.96581 24.08386 237 ft 21 kts 265°
2026-05-07 18:29 54.96562 24.08187 237 ft 13 kts 249°
2026-05-07 18:29 54.96536 24.08024 237 ft 14 kts 263°
2026-05-07 18:29 54.96524 24.07835 234 ft 17 kts 265°
2026-05-07 18:30 54.96516 24.07651 233 ft 14 kts 265°
2026-05-07 18:30 54.96507 24.07474 233 ft 15 kts 265°
2026-05-07 18:30 54.96511 24.07299 233 ft 13 kts 281°
2026-05-07 18:30 54.96518 24.07196 231 ft 6 kts 292°
2026-05-07 18:31 54.96555 24.07159 230 ft 6 kts
2026-05-07 18:31 54.96567 24.07182 230 ft 1 kts 95°
2026-05-07 18:31 54.96562 24.07208 231 ft 2 kts 107°
2026-05-07 18:31 54.96559 24.07229 232 ft 0 kts 106°